GFSNE_con_lsi_000.txt.gz
Lid_Strength_Index
2 2 2 2 3 3 4 5 6 7 7 5 4 1 2 2 3 3 2 3 4 4 5 5 5 6 6 6 5 4 4 4 5 4 4 3 3 2
3 3 3 2 2 2 3 4 4 5 8 5 5 4 3 3 3 3 3 2 3 3 4 5 5 5 5 6 6 6 5 4 4 5 5 4 3 3
2 3 3 3 3 3 3 3 4 5 6 5 4 3 3 3 3 2 3 3 3 3 3 4 5 5 6 6 6 6 6 5 5 5 5 5 4 3
3 3 3 4 4 3 4 4 4 4 5 6 4 4 4 3 2 2 3 3 3 3 3 3 4 4 5 6 6 6 6 6 6 5 6 6 5 5
3 4 4 4 4 4 4 5 5 5 5 6 6 5 4 4 4 3 3 3 3 3 4 4 4 3 4 5 5 5 5 6 6 6 6 7 7 7
4 4 5 5 5 5 6 6 6 6 6 7 7 6 6 5 5 6 6 5 5 4 4 5 5 4 4 4 4 4 5 5 6 6 6 7 8 8
5 5 5 5 6 7 7 7 7 7 7 7 7 7 7 6 6 6 6 6 5 5 5 4 4 4 4 5 5 4 4 4 4 5 5 6 7 8
5 5 5 6 6 7 7 8 8 8 7 7 7 8 7 6 6 7 7 8 9 4 5 6 4 5 4 4 5 5 5 4 4 4 5 6 7 7
5 6 6 7 7 7 7 7 8 8 8 8 9 8 8 7 6 7 7 7 8 6 5 6 5 6 4 4 5 5 5 5 5 5 5 6 7 7
5 6 6 6 6 7 8 8 8 7 7 7 7 7 6 6 5 5 6 6 5 5 4 7 4 5 5 5 5 5 5 5 6 6 6 6 7 8
5 5 6 8 8 8 8 8 8 7 6 6 6 7 7 7 6 6 7 8 8 7 5 6 6 5 4 4 3 5 5 6 6 6 6 7 7 8
5 5 6 7 7 8 8 8 9 8 8 7 6 6 6 6 7 6 6 8 8 9 7 7 7 7 8 3 3 3 3 6 6 6 6 6 7 5
6 5 5 7 8 9 9 9 9 9 9 9 8 7 7 6 5 5 5 6 7 8 6 7 7 7 7 7 4 3 4 4 4 5 6 7 8 7
6 5 5 8 9 10 10 10 11 10 9 9 9 9 8 7 6 5 5 5 4 6 5 5 6 7 7 7 7 4 3 3 5 6 5 5 8 9
5 6 8 9 10 10 11 11 11 9 10 10 9 9 7 6 5 5 5 4 5 5 5 5 6 6 7 7 7 5 5 4 4 5 6 5 5 5
7 6 8 10 10 10 10 10 10 10 10 10 10 8 7 6 6 5 6 6 6 6 5 5 5 5 7 7 7 6 5 6 4 4 5 5 5 5
8 8 10 11 11 11 11 11 10 10 10 10 10 9 8 7 6 5 5 6 7 7 6 6 5 5 5 6 7 6 6 5 4 4 5 5 5 5
10 11 12 12 12 12 11 11 11 11 11 10 10 10 9 8 7 7 7 6 6 5 6 5 5 6 6 6 6 7 6 6 5 5 4 6 6 4
12 12 13 13 12 12 12 12 12 11 11 11 10 10 10 9 8 7 7 7 6 5 4 4 5 6 7 8 7 9 7 6 6 6 5 7 7 5
13 13 13 13 13 13 13 13 12 12 11 11 11 10 10 9 9 9 8 8 6 4 4 5 5 5 6 7 6 8 8 8 7 7 6 6 8 10
14 13 13 13 13 13 13 13 12 12 12 11 11 11 10 10 10 9 9 9 8 7 6 6 6 7 5 5 7 8 8 8 8 7 6 7 8 8
14 14 13 13 13 13 12 12 12 12 12 12 11 11 10 10 10 10 9 9 9 9 9 7 6 5 6 7 6 8 8 8 8 9 9 9 9 9
13 13 13 13 13 13 13 12 12 12 12 12 12 11 10 10 10 9 9 9 9 9 9 9 8 6 7 7 7 7 9 8 7 8 8 9 9 10

GFSNE_con_lsi_003.txt.gz
Lid_Strength_Index
1 1 1 1 1 2 2 3 5 7 6 3 4 1 0 1 1 1 1 3 3 3 3 4 4 5 5 5 5 5 4 4 4 5 4 3 3 3
1 1 2 1 2 2 2 2 3 5 7 4 3 2 2 2 1 1 1 2 3 4 4 3 4 4 4 5 5 5 5 4 4 4 5 5 5 4
1 1 1 1 2 3 2 3 3 3 5 4 3 2 2 1 2 1 1 1 2 4 4 4 4 4 5 5 5 5 5 4 4 4 4 5 5 5
2 2 2 2 2 2 3 3 3 3 5 5 4 3 2 2 1 1 2 2 2 3 3 4 4 5 5 5 5 6 6 5 5 6 5 5 5 5
3 3 4 4 4 4 4 4 4 4 4 5 5 4 3 3 3 2 2 2 3 2 3 3 3 4 4 5 5 5 5 5 6 6 6 7 7 6
3 3 4 4 4 5 5 5 5 5 5 6 6 5 5 4 4 4 4 3 3 3 3 4 3 3 4 4 5 5 5 5 5 6 6 7 7 7
3 3 3 3 5 5 6 6 6 7 7 7 7 6 5 5 6 4 5 4 4 3 3 3 3 3 3 4 4 4 4 4 5 5 5 6 6 7
5 4 4 4 4 4 5 5 6 8 8 8 7 7 7 6 5 5 6 7 8 4 5 5 3 4 3 3 4 5 5 5 5 5 5 5 6 7
4 4 4 4 4 5 5 6 6 6 8 8 9 9 8 7 6 7 6 6 7 5 5 6 4 5 4 5 5 5 5 4 4 4 4 5 6 7
4 4 3 4 4 5 6 7 7 7 7 7 7 7 6 6 6 6 6 6 5 5 5 7 4 5 4 4 5 5 5 5 5 5 5 5 6 6
5 4 4 4 4 5 7 8 8 7 6 6 6 6 6 6 5 6 7 7 7 7 4 5 5 5 4 4 4 5 5 5 5 5 5 5 6 6
5 5 4 4 5 5 6 8 9 8 8 7 6 6 6 5 6 6 7 8 8 8 6 7 6 6 7 4 4 3 3 5 6 6 5 5 6 6
6 5 4 6 6 7 8 8 9 8 9 9 8 8 7 7 5 5 5 6 7 7 5 6 7 7 7 7 5 4 3 3 3 4 5 5 5 6
6 5 5 6 7 8 8 9 10 10 9 9 9 9 8 8 7 6 5 4 4 5 4 5 7 6 7 7 7 5 4 4 3 3 3 4 5 6
6 7 6 7 8 8 8 9 10 9 9 10 9 9 8 6 6 5 5 4 4 4 4 4 5 6 6 7 7 6 6 5 4 4 3 4 6 6
8 7 7 8 9 9 9 9 8 9 10 10 9 9 8 7 7 6 6 5 6 5 4 4 4 5 6 6 6 7 6 7 5 4 4 4 4 5
9 8 10 11 11 10 10 10 9 9 10 10 9 9 9 8 7 6 6 6 6 6 5 4 4 5 5 6 7 6 6 6 5 4 5 5 4 4
10 11 12 12 11 11 11 11 10 11 10 10 10 9 9 9 8 7 6 7 7 6 5 4 5 6 6 6 5 6 6 6 5 5 6 5 5 3
12 12 13 12 12 12 12 12 12 11 10 10 10 10 9 9 9 8 7 7 7 6 5 3 4 5 8 9 7 8 6 6 6 6 5 5 6 5
12 13 13 13 12 12 12 12 11 11 11 10 10 10 10 9 9 9 8 8 8 7 6 5 5 5 6 7 7 8 8 8 7 7 7 6 7 9
13 13 12 12 13 12 12 12 11 11 11 11 10 10 10 9 9 9 9 8 8 8 8 8 7 7 5 4 6 7 8 8 8 8 7 7 8 8
13 13 12 12 12 12 12 12 11 11 12 12 11 10 9 9 10 9 9 9 9 9 8 7 7 6 6 7 7 7 7 7 7 8 8 9 9 10
13 13 12 12 12 12 13 12 12 12 12 12 12 10 10 10 9 9 9 9 9 9 9 9 8 7 8 8 8 7 8 8 7 6 8 8 8 9

GFSNE_con_lsi_006.txt.gz
Lid_Strength_Index
2 2 2 2 2 2 2 3 4 7 7 5 2 1 1 1 1 2 3 3 4 3 3 3 2 2 3 4 4 4 4 3 3 3 3 4 3 2
1 2 2 2 2 2 2 2 2 4 6 4 4 3 2 3 2 2 2 2 3 4 3 4 4 3 3 4 4 5 4 4 4 3 3 4 5 5
3 2 2 2 2 2 3 3 4 4 6 5 4 4 4 3 3 3 2 2 3 3 4 4 4 4 3 4 5 5 6 5 5 4 3 4 4 5
3 4 3 2 4 4 4 4 4 4 6 7 6 5 6 5 4 3 2 2 3 2 3 3 4 4 4 4 5 5 5 6 6 5 5 4 4 4
5 5 4 4 5 5 5 5 5 4 5 7 7 6 6 5 6 5 4 4 2 2 2 3 3 3 3 4 4 5 5 5 5 6 6 6 6 6
5 5 5 5 5 5 5 6 6 7 7 8 8 8 7 6 6 7 7 6 6 4 3 4 3 3 3 4 4 4 5 4 4 5 6 7 7 7
5 5 4 3 2 3 5 6 7 8 9 9 9 8 8 8 8 6 7 6 6 5 6 6 6 4 4 3 3 4 4 5 5 4 5 5 6 7
7 6 5 3 3 2 3 3 5 8 9 10 10 10 10 9 8 8 9 10 11 7 8 8 6 7 5 5 3 4 5 5 5 5 5 5 6 6
7 7 6 4 4 4 3 4 4 5 7 8 10 10 10 9 9 10 10 10 10 9 9 11 10 9 7 5 4 4 4 5 5 6 5 6 6 6
7 7 7 6 5 5 5 6 6 7 7 7 8 8 8 8 8 8 8 8 9 8 7 10 10 10 10 8 5 4 5 5 5 5 5 5 6 6
6 6 5 5 4 4 6 7 7 7 6 6 5 6 6 6 6 8 9 9 10 9 8 9 10 10 9 9 8 4 5 5 5 5 5 5 5 6
6 6 5 5 5 5 6 6 7 7 8 8 9 8 7 7 6 6 8 10 11 11 9 8 9 9 10 9 8 7 9 5 5 5 5 5 5 7
8 7 6 4 5 5 6 7 8 8 9 10 10 10 9 8 8 7 6 8 10 10 8 7 9 11 9 10 10 8 7 7 8 7 5 5 5 6
9 7 7 6 6 6 7 7 7 9 11 11 10 10 10 9 8 8 7 6 6 7 6 6 7 9 10 10 10 9 9 8 8 8 6 5 5 5
9 8 7 7 7 7 7 7 9 10 10 11 11 10 9 8 8 8 7 7 6 6 5 5 6 8 9 9 9 10 10 9 6 5 7 9 9 6
10 9 8 9 9 9 9 9 9 10 11 11 11 10 9 9 9 8 7 8 8 8 6 5 6 6 8 8 8 10 10 10 8 6 6 8 6 7
10 10 11 11 11 11 11 11 10 11 11 11 11 10 10 10 9 9 8 9 10 10 9 8 5 5 7 8 10 9 9 10 9 6 7 7 7 6
11 12 13 12 12 12 12 12 11 11 12 11 11 11 11 11 10 9 7 10 12 11 10 8 6 6 7 8 6 8 10 10 9 8 6 7 7 7
13 13 13 13 13 13 13 12 13 11 11 11 11 11 11 11 10 10 9 10 10 8 11 7 8 7 8 10 9 7 8 9 8 10 9 9 7 7
13 13 14 13 13 13 13 13 13 12 12 12 11 11 12 11 10 11 10 10 9 9 8 9 10 9 8 9 8 10 7 8 8 9 9 7 9 8
13 13 13 13 13 13 13 13 13 12 13 13 12 11 11 10 11 10 10 12 11 10 11 10 11 10 9 9 10 9 11 7 8 9 9 9 8 10
14 13 13 13 13 14 14 14 13 13 13 13 14 13 11 10 11 11 10 11 10 11 10 9 8 9 10 10 9 11 10 11 8 7 8 9 11 11
15 14 13 14 14 14 14 14 14 15 15 14 14 14 12 12 11 10 10 10 11 12 13 10 10 9 9 10 12 10 14 11 9 10 11 7 8 8

GFSNE_con_lsi_009.txt.gz
Lid_Strength_Index
3 3 2 1 2 1 2 2 4 7 7 5 5 2 1 0 1 0 0 1 4 4 3 3 2 3 4 3 4 4 4 3 3 3 3 3 3 3
2 2 3 2 1 2 2 3 3 5 7 5 4 3 2 2 0 0 1 1 3 3 3 3 4 3 3 3 4 4 5 5 5 4 3 3 4 5
3 3 4 4 3 3 2 3 4 4 7 6 5 5 5 5 4 2 1 2 2 2 3 3 4 4 4 4 4 5 5 5 6 6 5 5 3 4
6 6 6 5 6 5 4 4 5 5 6 8 7 6 6 5 5 5 3 3 2 2 2 2 3 3 4 4 5 5 5 5 6 6 6 5 5 4
6 7 7 6 7 6 5 6 6 5 7 8 9 7 7 6 6 6 5 4 3 2 2 2 2 3 3 4 4 5 5 5 5 6 6 6 6 6
6 6 6 6 6 6 5 5 5 7 8 9 9 9 8 7 7 8 7 7 7 4 3 3 3 3 3 3 4 4 4 4 5 5 6 7 8 7
7 6 6 6 4 4 5 5 6 7 8 9 10 10 10 9 9 8 9 9 8 7 7 7 6 5 5 4 3 3 3 4 4 5 5 6 7 7
9 8 8 6 6 5 4 4 4 6 7 9 10 11 11 10 10 11 11 11 11 7 9 9 7 8 6 5 4 3 4 4 5 5 5 5 5 6
8 8 7 6 6 6 5 4 5 4 5 6 9 10 10 10 10 11 11 11 11 9 9 11 11 10 8 5 4 4 4 4 4 5 5 6 6 6
7 7 7 7 6 5 6 6 6 6 6 6 7 8 9 8 9 9 9 9 10 9 9 12 12 12 11 9 5 4 4 4 5 5 5 5 6 6
7 7 7 7 5 4 5 6 6 6 4 4 4 5 6 6 6 7 10 10 12 11 10 12 12 12 12 11 9 5 5 4 4 4 5 5 5 6
8 8 7 6 5 4 6 8 8 8 7 8 9 9 8 8 7 8 9 10 10 13 10 10 10 11 13 11 10 9 10 6 5 5 5 5 5 6
10 9 8 7 6 5 5 7 8 7 7 9 10 10 10 9 9 8 8 8 9 10 9 8 11 12 11 11 12 10 11 9 8 7 5 5 5 5
10 9 9 7 7 6 6 6 6 7 10 11 11 11 10 10 8 7 7 7 7 8 7 7 8 9 9 10 12 11 11 10 10 10 10 6 5 5
10 9 8 8 8 8 7 7 8 8 10 10 11 10 10 9 8 8 8 7 7 7 6 6 6 7 8 9 11 10 11 10 12 10 7 7 9 11
10 10 10 10 10 9 10 9 10 11 11 12 12 10 9 9 9 9 9 9 8 9 7 6 6 6 7 7 8 8 9 9 9 8 6 7 7 8
11 12 12 12 12 11 11 11 11 11 12 11 11 11 11 10 10 9 9 9 12 12 11 10 7 6 5 6 8 8 8 10 10 10 8 10 7 6
12 13 13 14 14 13 13 12 12 11 11 12 12 12 11 11 11 10 10 12 12 10 13 11 11 9 7 6 5 7 9 10 10 8 10 8 8 9
13 14 15 15 14 14 14 13 14 12 12 12 12 12 12 11 11 12 13 13 12 10 9 9 9 9 9 10 8 6 7 8 9 12 12 11 8 7
13 14 15 15 14 14 14 14 14 13 13 13 13 13 12 12 14 12 12 15 11 10 11 11 12 12 13 13 12 14 7 10 10 12 12 10 9 7
15 14 14 14 14 14 15 15 15 15 16 15 15 14 14 12 12 14 13 14 14 11 12 12 12 12 11 11 11 13 13 7 10 13 12 12 11 9
19 16 14 14 15 15 16 16 16 16 17 17 16 16 14 13 13 13 13 13 15 15 14 12 10 9 12 12 13 14 14 15 10 7 7 9 13 13
21 19 18 16 16 16 15 16 17 19 18 18 18 17 17 15 14 12 14 14 12 15 15 12 11 11 11 12 13 12 16 17 13 13 13 8 7 7

GFSNE_con_lsi_012.txt.gz
Lid_Strength_Index
4 4 3 2 2 2 2 4 6 8 7 4 5 3 3 3 1 1 2 2 2 3 2 3 2 3 3 3 3 3 3 3 3 2 3 3 3 3
3 4 5 5 4 4 3 3 4 5 7 6 6 5 4 4 2 1 1 0 1 2 2 3 3 3 3 4 4 4 4 4 4 4 4 3 3 4
6 6 6 6 7 7 6 5 5 4 6 5 5 6 6 6 5 4 3 0 1 2 2 2 3 4 4 4 4 4 5 5 5 5 5 5 5 4
7 7 7 6 7 7 7 7 7 6 6 8 7 7 7 6 6 6 4 3 2 2 2 2 2 3 4 4 5 5 5 5 6 6 5 6 6 6
7 7 7 8 8 8 7 7 7 5 6 8 8 7 7 7 6 6 6 6 4 3 3 3 2 3 4 4 4 5 5 5 6 6 6 6 6 6
7 7 7 8 8 8 7 7 6 7 7 8 8 8 8 7 7 8 9 8 8 5 4 4 4 3 4 4 4 4 4 4 5 6 7 7 7 6
7 7 8 7 5 6 6 7 6 7 7 8 8 8 9 10 10 8 10 10 9 7 7 7 7 6 5 5 4 3 4 4 5 5 5 6 7 7
9 8 8 7 6 5 5 4 5 6 7 7 8 9 9 9 10 10 11 12 12 8 9 9 8 8 7 5 4 4 4 4 4 5 5 5 6 7
9 9 8 7 7 7 5 4 5 4 5 6 7 8 8 8 9 10 11 11 11 9 9 11 10 9 8 6 4 3 4 4 4 5 5 6 6 7
8 8 9 8 7 7 6 5 5 5 5 5 7 7 7 7 8 9 9 10 9 9 9 13 12 12 11 10 5 4 3 4 4 5 5 5 6 6
8 8 8 8 7 5 6 7 7 6 4 4 4 4 4 4 6 7 9 10 11 10 10 12 12 13 12 12 10 5 4 4 4 4 4 5 5 6
10 9 8 8 7 6 6 7 8 8 7 7 7 7 7 8 8 8 10 11 12 14 11 12 11 12 15 13 12 11 11 6 5 4 4 4 4 7
11 10 9 7 7 7 6 7 7 6 7 7 8 9 9 9 9 9 9 10 11 11 10 10 12 13 12 12 13 12 12 11 11 9 5 4 4 5
11 10 9 8 7 7 7 7 6 7 7 9 10 10 10 10 9 8 8 8 8 9 8 8 11 10 12 14 12 12 12 12 13 12 12 8 6 5
10 9 9 9 9 9 9 8 9 9 10 10 10 10 9 8 8 8 7 7 7 8 7 8 8 9 10 11 12 11 12 12 13 12 8 11 11 11
11 11 11 10 10 10 10 10 10 11 11 11 11 10 9 9 9 9 9 9 8 8 8 7 7 7 8 8 8 10 10 11 11 8 11 8 6 7
14 13 13 13 13 13 12 12 11 11 12 12 12 11 11 10 10 9 9 9 11 12 11 11 9 8 7 7 8 8 10 10 11 10 8 8 11 9
15 15 15 15 15 14 14 14 13 12 12 12 12 12 12 11 11 10 11 13 12 11 10 9 9 9 8 8 6 8 8 8 11 10 8 9 8 10
18 17 18 16 15 14 15 14 15 14 13 13 13 13 13 12 12 13 14 14 13 12 13 13 10 9 11 11 11 7 9 9 10 13 12 8 8 7
17 18 16 15 15 15 15 15 15 16 16 15 15 14 14 13 13 13 13 15 13 12 12 13 13 12 13 15 14 15 8 9 8 11 11 10 8 7
17 17 19 15 15 15 17 17 19 18 18 18 17 16 16 14 14 13 14 16 16 13 14 14 13 12 12 12 15 16 15 8 10 15 14 16 14 12
20 18 18 18 19 17 18 19 19 20 19 19 19 19 18 16 15 14 15 14 16 17 15 14 11 10 13 12 15 17 15 17 12 8 8 9 14 14
21 19 21 22 21 20 16 18 19 22 20 19 19 19 19 18 16 16 16 17 16 16 15 13 13 12 12 12 14 13 17 18 12 14 15 9 7 7

GFSNE_con_lsi_015.txt.gz
Lid_Strength_Index
5 5 6 5 5 4 4 3 5 8 9 7 6 4 3 3 3 4 3 1 2 3 4 4 3 2 2 2 2 1 1 1 1 1 2 2 3 3
5 7 7 6 6 6 7 6 6 6 8 6 6 5 4 4 3 4 4 1 1 2 3 3 3 3 1 2 3 3 3 3 3 3 2 2 3 4
7 7 7 7 7 8 7 7 7 7 8 7 5 5 5 6 5 5 4 5 2 1 2 2 3 3 3 2 2 4 4 4 4 4 4 4 3 3
7 8 8 7 8 8 8 8 8 7 8 9 8 7 7 6 6 6 4 4 5 2 1 2 3 3 2 3 3 4 5 6 6 5 5 5 5 5
7 8 8 8 9 9 9 8 8 7 7 8 8 7 7 7 7 7 6 6 5 4 2 2 2 3 2 2 3 3 5 5 6 7 7 6 6 6
7 7 8 8 9 9 8 8 7 7 6 6 7 8 7 7 7 8 9 8 8 7 5 4 3 3 2 2 3 4 4 5 5 6 7 7 8 7
8 7 7 7 5 7 7 8 8 8 6 6 6 7 8 9 9 8 9 10 9 9 7 6 6 6 4 4 4 4 4 4 5 5 6 6 7 7
9 8 8 7 7 7 6 6 6 7 7 7 7 7 7 9 9 9 9 11 12 9 9 9 7 8 7 6 4 4 4 4 5 5 5 6 6 7
9 9 9 8 8 8 7 6 6 5 5 6 7 7 7 7 8 9 10 11 11 9 10 11 11 9 7 7 6 4 4 5 5 5 6 6 7 7
9 9 9 9 8 8 7 7 6 6 5 5 5 6 6 6 7 8 8 9 9 9 9 10 13 11 11 9 6 5 4 4 4 5 6 6 7 7
9 9 9 9 8 6 7 7 7 6 5 4 4 4 4 4 4 7 7 8 10 9 10 11 12 12 12 12 9 5 5 4 4 4 4 5 6 7
10 9 9 8 7 7 8 8 9 7 6 7 7 6 6 6 6 7 9 10 11 13 10 11 11 12 15 13 12 11 10 6 5 4 4 4 4 8
10 11 10 8 8 7 7 8 8 6 6 6 7 8 8 8 7 7 8 10 11 11 10 10 12 13 13 13 13 12 12 12 11 10 6 4 4 6
11 10 10 9 9 8 9 8 8 8 8 8 8 8 8 8 7 7 7 8 8 9 9 9 12 12 13 14 14 12 13 14 13 13 12 9 6 5
11 10 10 10 10 10 9 9 10 11 10 11 10 10 9 8 7 7 7 7 7 7 8 8 9 10 11 12 13 14 13 13 15 14 9 11 10 10
12 13 12 11 12 12 12 11 11 11 12 12 11 10 9 9 9 8 9 8 9 8 7 7 8 8 9 9 9 11 12 10 12 10 10 13 12 10
16 17 15 14 14 14 14 13 13 12 12 12 13 12 11 10 10 9 9 9 11 11 11 8 7 7 7 8 9 9 12 10 10 11 11 12 12 11
16 20 21 19 16 14 15 15 15 15 14 13 13 13 13 12 11 10 10 11 11 11 10 10 9 9 9 9 7 8 9 8 7 7 8 9 11 11
19 20 23 21 18 15 15 15 16 16 15 15 15 15 14 13 12 12 12 12 12 11 12 12 10 9 10 12 10 8 10 9 8 11 9 8 9 7
18 20 21 20 19 15 15 16 17 18 18 18 16 16 16 15 14 13 13 15 14 13 13 13 14 12 14 16 15 14 9 10 8 9 12 11 11 7
18 17 21 19 19 19 20 18 20 20 21 21 19 18 17 16 15 14 14 15 15 14 14 15 14 13 13 14 17 18 17 10 12 15 14 16 15 10
20 18 17 19 21 21 24 24 20 20 19 20 21 21 20 18 16 16 15 18 17 18 16 14 12 11 14 13 16 21 15 16 12 9 9 10 14 15
20 19 20 22 22 23 20 23 23 24 20 20 20 20 21 21 18 18 18 17 17 17 16 15 13 13 13 13 16 15 16 17 12 14 16 9 8 8

GFSNE_con_lsi_018.txt.gz
Lid_Strength_Index
4 5 5 5 6 6 6 6 7 11 10 7 6 3 2 2 2 2 3 2 1 2 3 3 3 3 2 2 2 1 -1 -1 -1 -1 -1 -0 0 1
4 6 6 6 7 7 7 7 7 8 11 7 6 4 3 3 2 2 3 2 2 0 1 2 3 3 4 3 2 3 2 -0 -1 -1 0 1 2 2
6 7 7 7 7 7 7 8 8 8 10 9 7 5 5 5 4 4 3 3 3 2 1 1 2 3 4 4 3 2 3 3 1 0 0 1 2 2
7 7 7 6 8 8 8 9 9 8 9 10 7 7 6 5 5 5 4 3 4 3 2 1 2 2 2 4 4 3 3 4 4 3 3 1 1 2
7 8 8 8 9 9 9 9 8 8 8 8 8 6 6 5 5 6 5 5 5 4 4 3 2 1 2 2 3 3 3 3 4 5 5 5 5 4
7 7 8 8 9 9 8 8 8 8 8 8 8 7 6 5 6 6 7 6 6 6 5 4 3 2 2 2 2 2 3 3 3 5 5 6 6 6
7 7 7 7 6 7 8 8 8 8 8 8 8 7 7 6 6 6 7 7 7 6 6 5 5 4 3 2 3 2 2 2 3 3 4 5 6 7
9 9 9 8 8 7 7 7 7 8 8 8 8 8 8 6 6 6 7 8 9 6 7 8 6 6 5 4 4 3 2 2 3 3 3 4 5 6
10 10 10 9 8 8 8 7 7 6 6 6 7 7 7 5 5 6 7 8 9 7 7 8 8 7 6 5 5 4 3 2 2 3 4 5 6 7
10 10 10 10 9 8 8 8 8 7 6 5 6 5 5 4 5 5 6 7 7 7 6 9 8 8 7 7 5 4 3 3 3 3 4 5 5 7
9 9 9 9 8 7 8 8 8 7 5 5 4 4 4 3 4 5 7 8 9 8 6 7 9 9 9 8 6 5 4 4 3 4 4 5 6 6
10 9 9 9 8 8 9 10 10 9 7 6 6 5 5 5 5 6 7 9 9 10 7 8 9 9 10 9 9 8 7 6 4 4 4 4 5 6
10 10 9 9 8 8 8 9 9 9 8 8 7 6 6 6 6 6 7 8 9 9 8 8 10 10 10 10 9 8 8 7 6 6 5 4 4 5
12 11 10 9 9 9 10 9 9 10 10 10 9 8 8 7 6 5 6 6 7 8 7 7 9 9 10 11 10 9 8 8 8 7 7 7 6 5
12 11 10 10 10 11 10 10 11 11 11 12 11 10 9 7 6 6 5 5 6 6 7 7 8 9 9 10 10 10 9 8 9 8 8 8 7 7
13 14 13 11 14 13 12 12 13 12 12 12 13 11 9 8 8 7 7 7 8 8 6 6 8 8 9 9 9 10 10 9 9 9 9 9 8 7
18 18 16 16 14 14 14 14 14 14 14 13 13 13 12 11 10 8 8 8 9 9 8 7 7 7 7 7 8 8 8 8 8 8 9 9 8 7
16 20 23 23 19 15 15 15 15 16 16 14 14 14 13 13 12 10 10 10 10 10 10 9 8 8 8 7 6 8 8 8 7 7 8 8 8 7
19 20 24 24 21 16 15 15 16 16 16 17 15 15 15 13 12 12 11 12 12 11 11 10 9 8 10 11 10 8 9 9 8 8 7 7 8 6
17 19 21 21 18 16 16 16 16 17 18 18 18 17 16 15 14 14 14 14 13 12 12 11 11 11 11 11 11 11 9 10 9 9 9 8 7 7
17 16 19 18 17 17 21 22 23 19 19 21 20 19 19 17 15 15 15 17 16 14 14 13 12 12 11 11 12 12 12 11 11 11 11 11 10 9
18 16 16 16 19 19 23 25 22 23 20 18 19 21 20 20 17 17 16 16 15 15 15 13 11 11 11 11 12 14 12 12 11 10 9 10 10 11
17 17 17 19 20 20 18 21 21 24 21 20 19 18 20 20 18 18 18 16 16 16 15 14 13 12 12 12 13 12 12 13 11 11 10 10 8 8

GFSNE_con_lsi_024.txt.gz
Lid_Strength_Index
2 2 2 2 1 1 2 3 4 7 7 4 4 2 2 2 2 2 2 2 1 1 1 2 1 1 2 3 3 3 3 2 2 2 1 -0 -1 -1
2 2 1 1 1 2 2 3 3 5 7 4 4 3 3 3 2 2 2 2 3 2 1 1 0 1 2 2 3 3 3 2 2 3 2 0 -1 -1
2 1 1 1 2 2 2 3 3 4 6 5 4 3 3 3 3 2 2 1 1 2 1 2 2 2 1 2 2 3 3 3 2 3 3 1 -0 -1
1 1 2 2 3 3 3 4 4 4 6 7 5 5 5 4 4 3 3 2 1 1 1 2 3 2 1 1 1 2 2 3 3 3 4 2 1 -1
2 2 3 3 4 4 4 4 5 5 5 6 6 5 5 4 4 4 4 2 2 1 1 2 2 3 2 1 1 1 2 2 3 3 4 3 3 0
2 3 4 4 5 5 5 5 6 6 6 7 7 7 6 5 5 5 5 3 3 1 1 2 2 2 2 1 1 1 1 2 2 3 4 4 4 3
3 4 4 5 7 6 7 7 7 7 7 7 8 7 7 6 6 4 5 4 2 2 1 1 2 1 1 1 1 1 2 2 2 2 3 4 4 4
5 5 5 6 6 7 7 7 7 7 7 8 8 8 7 6 5 5 4 4 5 1 2 2 1 2 2 1 3 3 3 3 2 1 3 3 5 6
5 5 6 6 6 6 7 7 6 6 7 6 8 7 6 5 4 5 4 4 4 2 3 3 2 2 2 2 3 3 3 3 2 1 2 3 5 6
5 5 5 6 6 7 7 7 6 6 6 7 6 6 5 4 4 3 3 3 3 2 2 5 2 3 2 2 3 4 3 3 3 2 2 3 3 6
5 5 6 7 8 8 8 8 7 7 6 7 6 7 6 4 4 3 4 4 4 3 2 3 3 3 3 2 2 3 3 4 4 2 2 2 3 4
5 6 7 8 9 8 8 8 9 8 8 7 7 6 5 4 4 3 4 5 5 5 2 3 4 4 5 2 2 2 2 4 4 2 2 2 3 2
6 6 6 8 9 9 9 8 9 9 9 8 7 7 5 4 4 3 2 3 5 5 3 3 4 4 4 4 2 2 2 2 2 2 3 3 3 3
7 6 7 9 9 9 9 9 9 9 8 8 8 7 7 6 4 3 3 3 2 4 3 3 4 5 6 5 5 3 3 2 2 2 2 2 4 4
6 7 9 9 9 9 9 9 9 8 9 9 9 8 8 6 4 3 2 2 3 3 3 3 4 4 4 6 5 5 4 4 2 2 2 3 2 2
6 7 8 10 9 9 8 8 8 9 10 10 9 8 7 6 6 4 4 3 3 3 2 3 3 3 4 5 5 6 5 4 4 3 3 3 2 2
8 7 7 8 8 8 8 8 8 9 10 10 9 9 8 7 7 5 5 5 4 4 4 2 3 3 4 4 6 6 6 5 4 4 4 4 3 3
8 7 7 7 8 8 8 8 8 9 10 10 10 9 10 9 8 7 6 6 6 6 5 5 4 5 6 5 5 5 5 5 5 5 5 5 5 3
7 6 7 7 7 8 8 8 9 9 9 10 10 10 10 10 9 8 7 8 8 7 6 5 6 6 7 8 6 7 6 5 5 5 5 6 6 5
7 6 6 6 7 7 7 8 8 8 9 9 10 10 10 10 10 10 9 9 9 9 8 7 7 8 9 9 7 7 8 5 5 6 6 5 5 7
6 6 5 6 6 6 6 7 8 8 9 9 9 10 10 11 11 10 10 10 9 9 9 9 8 7 6 5 7 7 6 8 7 6 6 6 6 6
5 5 5 5 5 6 6 6 7 7 8 8 9 9 9 10 11 11 10 10 10 9 9 8 7 7 7 7 7 8 7 7 8 8 8 8 7 7
5 5 4 5 5 5 6 6 7 7 7 8 9 9 10 10 10 11 11 10 10 11 10 10 8 7 7 7 8 7 8 8 7 7 7 9 8 8

GFSNE_con_lsi_027.txt.gz
Lid_Strength_Index
3 3 3 2 1 2 2 2 3 6 6 4 3 1 1 1 1 1 2 2 2 2 2 2 2 2 2 2 2 3 3 4 4 3 2 3 2 0
3 3 2 1 1 1 1 1 3 4 6 4 3 2 2 3 2 1 2 1 2 2 2 2 2 2 2 1 1 2 3 3 4 3 3 3 3 1
2 3 2 1 1 1 1 2 3 3 5 4 3 3 3 3 3 2 2 2 2 2 1 1 2 1 2 2 2 2 2 3 3 3 2 2 3 2
3 3 2 2 2 2 3 3 4 4 4 6 5 4 4 4 3 3 3 3 3 2 1 1 1 2 2 3 2 1 1 2 3 3 3 3 4 3
3 2 2 2 3 3 4 5 5 5 5 6 6 5 4 4 4 4 4 4 3 2 2 2 2 2 2 2 2 1 1 1 2 3 3 3 4 3
2 2 3 3 4 5 6 5 6 6 6 7 7 6 6 5 5 5 6 4 4 3 2 2 1 2 1 1 1 1 1 1 1 2 2 3 4 4
3 3 3 4 6 6 6 6 7 8 7 8 8 7 7 7 7 6 6 5 4 2 2 1 1 0 1 1 2 1 2 2 2 2 2 2 3 4
4 3 3 4 4 5 6 6 7 8 8 7 7 8 8 7 6 6 6 6 7 1 3 2 1 1 1 1 0 2 3 3 2 2 2 2 3 4
4 4 4 5 5 5 6 6 6 6 6 6 7 7 8 7 7 7 6 5 5 3 2 3 1 2 1 1 2 2 3 3 3 2 1 2 3 4
4 4 4 5 6 7 7 7 7 6 6 6 6 7 7 6 7 6 5 5 3 2 2 4 1 2 1 1 1 1 2 3 3 3 1 2 3 4
4 4 5 6 7 8 8 8 8 7 5 5 6 6 6 5 5 5 5 5 5 4 1 3 2 2 2 1 1 1 2 3 3 3 2 2 2 5
4 4 6 7 8 8 9 9 9 8 8 8 7 6 6 5 5 4 4 5 5 5 2 3 3 3 4 1 1 0 1 3 3 3 3 2 2 2
5 5 5 7 8 9 9 8 8 8 8 8 7 7 6 5 5 4 3 3 5 5 2 3 3 3 4 4 2 1 1 2 2 4 3 2 2 2
6 5 5 7 8 9 8 8 9 8 7 8 8 8 7 7 6 4 3 2 2 3 2 2 4 4 4 4 5 2 1 1 2 3 4 3 3 3
5 6 7 7 8 7 8 8 8 7 8 9 9 9 8 6 5 4 3 2 2 2 2 2 3 3 4 5 5 4 4 3 2 2 2 3 3 2
5 5 6 7 7 8 7 6 6 7 8 8 9 8 7 7 6 5 5 4 4 3 2 2 2 3 4 4 4 4 3 4 3 2 2 1 1 1
7 6 6 6 6 6 6 6 6 7 8 8 8 9 8 8 8 6 6 5 5 5 4 3 2 2 3 4 5 4 4 4 3 3 3 4 3 2
7 7 6 6 6 6 7 7 6 7 7 8 8 8 9 9 9 7 7 7 7 6 5 4 3 4 4 4 4 4 5 4 4 4 4 5 5 3
8 6 6 6 6 6 6 6 7 7 7 7 8 8 9 9 9 9 8 8 8 8 7 5 5 6 7 7 5 6 5 5 4 4 4 5 5 4
7 6 6 5 6 6 6 6 6 6 7 7 8 8 9 9 10 10 9 9 9 8 8 7 7 8 8 8 6 7 6 5 4 5 5 4 5 7
6 5 4 5 5 5 5 5 6 7 7 8 7 8 8 9 9 10 10 9 9 8 9 9 8 7 6 5 7 7 6 7 6 6 5 6 6 6
5 5 4 4 4 5 5 5 6 6 6 7 7 7 8 8 9 9 10 10 10 10 9 8 7 6 6 7 7 7 7 7 7 7 8 8 8 8
4 4 4 3 4 4 5 5 6 6 6 6 7 7 8 9 8 8 9 10 10 10 10 10 8 6 6 7 7 7 7 7 7 7 7 7 7 7

GFSNE_con_lsi_030.txt.gz
Lid_Strength_Index
6 7 6 5 5 5 5 4 5 8 8 6 6 4 3 4 4 4 4 2 2 2 2 2 2 2 2 3 2 2 2 2 3 4 4 4 4 3
6 6 6 5 5 4 4 3 4 5 8 6 5 5 5 4 3 4 4 3 3 2 2 2 2 2 2 2 3 2 1 2 2 3 4 4 4 4
7 6 6 6 5 4 4 4 5 6 8 7 5 5 6 6 5 5 4 5 4 2 2 2 2 2 2 1 1 2 2 2 2 2 3 4 4 3
7 6 6 4 5 5 5 6 6 6 7 9 7 7 7 6 6 6 5 4 4 3 2 2 2 2 2 1 2 2 3 2 2 2 2 4 4 4
7 7 7 6 7 6 7 7 7 6 7 9 9 7 7 7 6 6 5 5 4 3 3 3 3 3 3 2 2 2 2 2 2 2 2 3 4 3
7 7 6 7 7 8 7 8 8 9 9 9 9 9 8 7 7 8 8 6 7 5 4 4 3 3 3 2 2 2 2 1 1 2 2 3 3 3
7 6 6 6 6 6 7 9 9 10 10 10 10 9 9 9 9 7 8 8 7 7 7 6 5 4 3 2 1 1 2 2 2 2 2 2 2 3
8 7 6 4 5 5 5 6 7 10 10 10 10 10 9 8 8 8 9 10 11 6 7 7 4 4 2 2 1 1 2 2 2 3 3 3 2 3
7 7 6 5 6 7 7 7 7 7 7 8 9 8 8 9 9 10 10 10 9 7 7 7 5 4 2 1 1 1 1 2 2 2 3 2 2 3
7 6 7 7 8 8 9 9 9 9 8 7 9 9 8 8 8 8 9 8 7 6 5 7 6 4 3 3 0 0 1 1 2 2 2 2 2 2
6 6 6 7 7 7 9 10 10 9 6 6 6 6 6 5 6 7 8 8 8 7 5 6 5 4 4 5 3 0 1 1 2 3 3 2 2 2
7 6 6 7 8 8 10 11 11 10 10 9 9 7 7 6 5 6 6 7 7 7 5 6 5 5 7 5 2 2 4 2 2 3 3 2 2 3
8 7 7 7 7 7 8 10 10 9 9 9 8 8 7 7 7 7 6 5 6 7 4 4 6 6 6 5 4 3 4 5 3 4 3 3 1 2
8 7 7 6 6 7 8 8 8 8 10 11 10 9 9 9 7 7 6 5 4 4 3 3 6 6 6 7 7 4 3 6 5 4 4 3 3 3
8 6 5 6 6 7 6 7 9 10 11 13 11 11 9 8 7 7 6 6 4 3 2 4 6 5 6 7 7 7 5 4 5 4 4 5 5 5
7 6 8 8 9 9 9 7 8 9 10 12 12 10 9 8 9 8 8 7 7 5 3 3 3 4 6 6 6 8 5 5 4 4 4 4 4 3
10 10 10 8 9 9 9 8 8 9 10 11 12 11 10 9 10 9 8 8 8 8 7 4 3 3 4 4 8 6 7 5 3 4 5 5 5 5
9 11 12 10 10 10 10 10 10 10 9 10 11 11 10 10 10 10 8 8 9 9 8 6 4 5 5 5 4 6 7 8 6 6 6 7 6 5
10 11 10 9 8 9 9 10 11 10 10 10 11 11 11 9 10 10 10 10 10 9 8 7 6 8 9 9 6 5 8 8 8 9 8 8 7 6
7 9 9 9 8 8 9 9 10 11 11 11 12 11 11 11 10 11 11 11 11 10 9 8 8 9 9 9 7 9 5 6 6 9 10 9 7 6
7 7 8 8 7 8 9 9 11 11 12 14 13 11 10 10 12 9 13 12 12 10 11 10 9 8 7 7 8 8 8 6 7 9 8 10 10 9
7 6 6 7 7 6 8 9 10 12 10 11 11 13 10 13 13 10 12 15 11 12 11 10 8 7 7 7 9 10 9 10 7 7 7 8 11 10
6 6 6 6 6 6 8 9 8 10 10 12 12 12 13 15 11 10 10 10 12 11 12 12 10 8 8 7 9 9 11 11 10 10 11 7 7 7

GFSNE_con_lsi_033.txt.gz
Lid_Strength_Index
9 8 8 8 6 6 7 7 8 11 10 8 8 5 5 5 4 5 5 3 2 2 3 3 3 3 3 3 2 2 2 2 2 2 2 4 4 5
8 9 9 8 7 6 7 8 7 8 10 8 8 7 6 5 4 5 5 3 3 3 3 3 2 2 3 3 3 2 2 2 2 1 1 2 4 5
9 9 8 7 8 7 9 9 9 9 10 9 8 7 8 8 6 6 5 6 6 3 3 2 2 2 2 2 2 3 2 2 2 2 2 2 2 4
10 9 8 8 10 10 10 10 9 9 10 11 10 9 9 8 7 8 6 5 5 4 2 2 2 2 2 2 2 2 2 2 2 3 3 3 2 3
9 9 9 9 11 11 11 10 9 8 10 11 10 9 9 9 8 8 7 7 5 3 4 3 3 3 3 3 3 3 2 2 2 3 3 2 2 3
10 10 9 10 11 10 9 10 9 10 10 11 10 10 10 9 9 9 8 7 7 6 5 5 4 4 4 4 3 3 3 3 2 2 3 3 3 3
10 9 9 8 6 8 9 9 10 10 11 11 11 11 10 10 10 8 9 9 9 8 8 7 7 7 6 5 4 4 3 3 3 2 2 3 3 3
11 10 9 7 6 5 6 6 7 10 11 13 11 11 10 9 8 10 10 11 12 9 9 9 8 8 7 6 3 4 3 4 3 3 3 3 3 3
10 10 8 7 7 8 7 7 8 8 8 10 11 10 11 10 10 10 10 11 11 9 9 9 7 8 6 3 2 1 1 2 2 3 2 3 3 3
9 9 9 9 8 8 9 9 9 9 9 9 10 11 10 9 9 8 9 9 8 8 7 8 7 7 6 4 1 0 0 0 1 1 2 3 2 2
8 7 7 8 7 7 9 9 10 10 8 7 7 7 6 6 6 7 8 9 10 8 7 7 8 7 7 6 4 0 0 0 -0 1 2 3 2 2
8 8 6 8 7 7 10 10 12 10 10 10 9 9 7 7 6 7 8 9 9 9 7 6 7 8 8 6 4 3 3 1 1 1 3 3 2 2
8 8 8 6 7 6 7 10 11 9 9 9 10 9 8 8 7 7 8 8 9 8 5 5 6 8 7 7 5 3 3 2 5 4 3 3 2 2
8 8 8 5 5 6 7 7 7 8 13 12 11 11 10 9 8 8 8 7 7 6 4 3 5 7 7 7 7 5 4 3 3 4 3 3 2 2
8 8 6 5 5 6 6 6 8 10 12 14 12 12 11 9 8 8 8 8 7 6 4 3 4 5 6 7 7 7 6 5 3 5 4 4 4 4
8 8 8 8 10 9 9 8 9 10 11 12 13 12 10 10 11 9 9 9 9 8 6 5 4 3 5 6 6 7 7 6 3 4 4 4 4 5
12 8 10 11 10 8 9 9 9 10 11 13 13 12 11 10 10 10 9 9 11 9 9 6 5 4 3 4 5 7 7 8 4 3 3 4 4 5
8 12 15 16 13 10 10 11 11 11 11 11 13 12 12 12 11 10 10 11 11 10 10 7 7 7 6 5 4 6 7 7 6 6 5 6 5 4
12 13 16 14 12 10 9 11 12 12 11 12 13 14 13 11 12 11 11 11 11 11 9 8 8 9 10 10 6 4 7 7 6 8 8 7 6 5
9 10 11 11 10 9 9 10 12 13 13 13 15 17 17 14 14 12 11 16 12 11 11 9 10 10 10 9 8 8 4 7 6 9 10 6 6 5
8 8 9 9 9 9 9 10 13 15 16 17 17 16 15 14 15 13 12 14 15 11 12 12 10 8 7 6 8 9 10 5 6 8 8 9 10 9
8 8 7 8 8 8 7 8 11 14 15 16 17 15 18 17 17 16 15 15 13 13 12 11 10 8 8 7 8 10 9 9 7 6 6 7 9 9
7 7 7 7 7 8 9 9 8 10 11 13 14 16 20 17 16 15 14 13 12 14 13 12 11 9 8 8 9 9 11 10 9 9 10 7 6 6

GFSNE_con_lsi_036.txt.gz
Lid_Strength_Index
10 10 10 10 9 8 7 7 9 13 14 12 12 9 8 7 6 6 6 4 3 3 3 3 3 3 3 3 2 2 2 2 1 1 2 3 4 4
10 10 10 9 8 7 8 9 9 10 14 13 12 10 8 7 6 6 7 4 4 4 3 3 3 3 3 3 3 3 3 3 2 2 2 2 3 4
10 10 9 8 8 9 11 11 11 12 14 12 11 10 10 9 8 8 7 7 7 5 4 4 3 3 3 3 4 3 3 3 3 2 2 2 2 3
10 10 10 8 10 12 12 12 12 12 12 12 11 10 10 9 9 9 7 6 7 5 4 4 4 4 3 3 3 3 3 3 3 3 2 2 2 3
10 9 9 10 12 12 12 12 12 10 11 11 11 10 10 10 9 9 9 8 6 5 5 5 5 4 4 3 3 3 3 3 3 3 3 3 3 3
9 10 10 11 11 11 11 12 11 11 10 11 10 10 10 9 10 10 9 8 8 7 6 6 5 5 4 5 4 4 4 4 4 3 3 3 3 3
10 10 10 9 7 9 10 11 10 11 11 11 11 10 10 11 11 10 10 10 9 9 9 8 8 8 7 6 5 5 4 5 4 3 3 3 3 3
11 10 9 7 7 6 6 7 8 10 11 13 11 12 11 11 10 11 11 11 11 9 10 9 8 8 7 7 6 5 4 4 5 4 4 4 3 3
10 9 9 7 7 8 7 7 8 7 8 10 12 11 12 11 11 11 10 10 10 9 9 9 9 9 7 6 4 4 3 3 4 4 3 3 4 4
9 8 9 9 9 9 9 9 9 9 9 8 10 10 10 9 9 8 8 7 8 8 9 10 9 9 7 7 4 3 2 1 2 2 2 3 4 4
7 7 8 8 8 6 9 9 9 9 7 7 7 6 7 7 7 7 9 10 11 10 9 9 8 8 7 7 6 2 1 1 0 0 0 1 3 4
8 8 6 8 7 7 9 10 11 10 9 9 9 9 8 8 7 8 9 10 10 11 8 9 8 7 9 9 7 6 5 2 0 0 -0 1 2 4
8 8 8 6 6 6 6 9 10 9 8 9 9 9 9 9 8 8 8 9 10 10 8 7 7 6 6 8 8 6 5 3 4 4 1 2 2 3
8 8 8 6 6 5 6 6 6 7 11 12 11 11 10 10 9 9 8 8 8 8 7 6 6 5 6 7 9 7 4 4 3 2 3 2 2 2
8 7 7 6 5 6 5 5 8 10 11 14 12 12 11 9 8 8 8 8 7 7 6 7 6 6 5 6 7 8 7 4 3 3 3 4 4 3
7 7 9 8 10 9 10 8 9 10 10 11 13 12 11 11 10 10 10 9 9 9 8 7 7 6 7 5 5 8 7 6 5 3 3 3 4 4
8 10 10 10 9 9 10 9 9 10 11 12 14 13 12 11 11 10 10 10 12 11 10 8 7 6 6 4 5 5 6 7 5 3 3 4 4 4
8 9 10 10 10 10 11 11 11 11 11 11 14 13 13 13 12 10 10 12 12 11 11 9 9 9 8 7 4 5 6 6 6 5 4 4 4 4
8 10 10 12 12 11 10 11 11 11 12 11 12 13 14 13 13 12 12 12 12 11 11 10 10 11 12 13 7 4 7 7 7 9 6 6 5 6
8 9 10 11 11 10 10 10 10 13 13 13 15 17 19 15 15 13 12 15 13 11 11 11 11 11 12 13 10 9 5 7 6 9 6 6 5 5
7 8 9 9 10 9 10 11 13 13 13 15 15 16 20 15 16 15 15 14 15 11 12 12 11 9 8 7 10 10 10 5 5 7 6 10 10 8
7 7 8 7 8 9 10 10 12 11 11 13 15 18 20 17 17 18 18 15 12 14 12 11 10 9 8 8 8 12 10 11 7 5 5 7 11 12
6 7 7 7 6 7 8 8 9 9 9 10 12 14 18 18 16 18 18 15 12 14 13 13 11 10 10 9 9 9 10 11 9 10 10 6 6 6

GFSNE_con_lsi_039.txt.gz
Lid_Strength_Index
10 10 10 9 9 8 8 8 10 12 12 12 12 11 11 10 9 9 9 6 5 4 4 4 4 3 3 3 3 2 2 2 2 1 1 1 2 3
10 10 10 10 9 9 9 9 8 10 14 13 13 12 11 10 9 9 9 5 5 5 5 4 4 4 4 3 3 3 3 3 2 2 2 2 2 2
10 10 10 10 9 9 10 10 12 13 14 12 12 12 12 11 10 9 8 8 8 5 5 5 5 5 5 4 4 3 3 3 3 3 3 2 2 2
10 10 9 8 9 10 11 12 13 12 12 13 12 11 11 10 10 10 8 7 8 6 6 6 6 5 5 5 4 3 3 3 4 3 3 3 2 2
10 10 9 9 10 11 12 12 12 10 11 12 11 11 10 10 9 9 9 8 7 6 7 6 6 5 4 4 4 4 4 4 4 3 4 4 3 3
9 9 9 10 10 11 10 11 11 11 11 11 11 10 10 9 10 10 10 9 9 9 8 7 6 5 5 4 4 4 4 4 4 4 4 4 3 3
9 9 9 8 6 8 10 11 11 11 11 11 11 11 10 11 11 10 11 10 10 10 9 8 8 8 8 6 6 5 5 4 4 4 4 3 3 3
10 9 8 6 6 4 5 6 9 11 11 13 11 11 11 11 11 11 11 12 12 10 10 9 8 9 8 7 6 5 4 4 4 4 4 4 3 3
9 9 8 8 7 7 6 6 7 7 8 10 11 11 11 11 11 11 10 10 10 9 9 9 9 9 8 7 5 4 4 4 3 3 3 4 4 4
9 8 9 8 8 8 9 9 9 9 9 9 10 10 10 9 9 8 8 8 9 9 9 11 9 9 7 7 5 4 3 2 2 3 3 3 4 4
8 7 8 9 7 6 9 9 9 9 7 6 6 6 6 6 7 10 10 10 12 11 9 10 10 9 8 8 7 4 3 3 2 2 1 2 3 4
9 8 6 7 6 6 9 10 11 9 9 9 9 8 7 8 7 8 10 11 11 12 9 11 10 9 9 9 9 7 7 4 2 2 1 1 1 5
8 9 8 6 6 6 6 9 10 8 9 9 9 9 9 8 8 8 8 10 11 10 8 8 10 9 7 8 8 7 6 6 5 3 1 1 1 2
9 8 7 6 5 6 6 6 5 7 10 10 11 11 11 10 9 8 8 8 8 8 7 8 9 9 8 9 8 7 7 5 5 3 2 1 1 1
7 7 6 6 5 6 5 5 7 9 11 15 12 11 12 10 8 8 8 8 8 8 6 8 8 8 8 8 7 6 8 6 5 4 3 2 3 3
7 7 6 7 8 9 9 7 9 10 10 11 12 13 12 11 11 10 11 10 10 11 8 7 8 8 9 8 6 6 6 6 5 4 2 3 3 3
6 7 8 8 9 9 10 9 10 10 11 13 14 13 13 11 12 11 11 11 14 12 11 9 8 8 8 7 7 5 5 5 6 5 4 4 3 4
7 8 8 8 9 9 10 10 11 12 10 11 13 13 12 13 13 12 11 13 13 12 11 10 10 10 9 8 4 6 6 7 7 5 4 5 5 4
7 7 8 8 9 10 9 10 11 11 11 11 12 13 12 13 14 13 13 13 13 12 11 10 11 11 13 14 9 4 7 6 7 6 5 5 6 6
5 7 8 8 9 9 9 10 10 11 13 13 14 13 15 14 15 14 13 17 14 12 11 11 12 11 12 14 11 10 5 7 6 6 6 6 6 4
5 5 7 7 8 9 9 9 10 12 15 17 13 13 15 14 16 14 16 16 16 11 12 12 11 9 9 7 11 11 9 6 5 7 6 9 8 8
5 6 6 6 7 8 9 9 10 12 14 14 13 13 14 15 15 16 20 19 14 14 13 11 10 10 9 8 9 11 10 10 7 5 5 5 7 9
5 5 5 6 6 7 7 8 9 9 10 11 11 12 14 16 15 16 18 16 14 14 14 13 12 10 11 9 9 9 9 9 10 10 9 6 5 5

GFSNE_con_lsi_042.txt.gz
Lid_Strength_Index
10 10 11 10 9 8 8 6 9 11 11 9 9 10 10 10 9 9 9 7 6 5 5 5 4 4 3 3 3 2 2 2 2 1 1 1 1 1
10 11 10 10 9 8 8 8 7 8 11 10 10 10 9 9 8 8 8 6 6 5 5 4 4 4 4 4 4 4 3 3 2 2 2 1 1 1
10 11 10 9 9 8 8 8 8 9 10 10 9 9 9 9 9 8 8 8 7 5 5 4 5 5 5 5 5 5 4 4 3 3 3 2 2 2
11 10 9 8 9 8 9 9 9 10 10 11 10 10 9 9 9 9 7 6 6 5 5 5 5 5 6 6 6 5 4 4 3 3 3 3 3 2
10 9 9 9 10 9 9 10 10 9 10 11 11 9 9 9 9 8 7 7 6 5 6 6 6 5 5 5 5 4 4 4 4 4 3 3 3 3
9 9 8 9 9 9 9 9 10 10 10 10 10 10 10 9 9 9 9 8 8 7 7 7 6 6 6 5 5 4 4 4 4 4 3 3 3 3
9 9 9 8 6 7 9 10 10 11 10 10 11 11 11 10 10 9 10 9 9 8 8 7 8 7 7 6 5 5 5 4 4 4 4 4 3 3
9 9 9 6 6 5 5 6 9 10 10 11 11 11 11 10 9 10 10 10 11 7 8 8 8 7 7 6 6 5 5 4 4 4 4 3 3 3
10 9 9 8 7 8 6 5 6 6 8 10 11 11 11 9 9 10 9 9 9 8 8 9 8 8 7 6 5 5 5 4 4 3 3 3 3 3
9 9 8 8 7 8 9 9 9 8 8 8 9 10 9 8 8 8 8 8 8 8 8 10 8 8 7 6 6 5 5 4 4 4 4 3 3 3
9 8 8 8 7 6 9 10 9 9 7 6 6 6 6 6 6 8 10 10 11 10 9 9 8 8 7 7 6 5 4 4 4 4 3 3 3 3
9 8 6 7 7 6 8 9 10 9 9 9 9 8 7 7 6 7 8 11 11 11 8 10 9 9 9 7 7 5 5 5 4 3 3 3 2 3
8 8 8 6 6 6 6 9 9 8 9 9 9 8 8 8 8 7 7 9 10 10 8 8 9 9 9 9 6 6 6 4 4 4 3 2 1 1
8 8 7 6 6 5 5 6 6 8 9 10 10 10 10 9 8 8 7 7 7 8 7 7 9 9 9 10 10 6 5 4 4 4 2 1 1 1
7 7 6 6 5 5 5 5 6 7 9 10 10 10 9 9 8 8 7 7 7 7 7 7 8 8 8 9 9 8 7 4 3 4 3 2 2 2
7 6 7 7 7 6 6 5 6 7 9 9 10 10 10 10 10 9 10 9 9 9 8 8 7 7 9 9 8 8 5 5 3 4 3 3 2 2
9 7 7 8 7 7 7 7 7 8 9 10 11 11 11 11 10 10 10 10 11 11 10 9 8 7 8 8 9 6 6 5 4 5 4 4 3 3
7 7 8 9 8 8 8 8 8 9 9 10 11 11 11 11 11 10 10 11 11 11 10 10 9 10 9 8 6 6 6 6 5 5 4 5 5 4
6 6 7 6 7 7 7 8 9 9 9 9 10 11 11 11 12 11 11 11 11 11 10 10 10 11 12 13 9 5 7 6 6 5 4 4 5 5
5 6 6 5 6 7 7 8 8 9 10 10 11 12 13 12 12 12 11 13 12 11 10 10 10 11 12 12 11 8 6 6 6 6 5 5 4 4
6 6 5 5 5 6 6 7 8 9 10 12 11 12 13 12 13 12 12 15 14 11 11 11 10 9 9 8 9 9 6 5 5 6 6 7 7 6
5 6 5 5 5 6 6 7 8 9 10 12 12 12 13 12 12 13 14 14 12 11 11 10 9 9 8 9 9 8 7 7 6 6 5 5 7 8
5 5 5 5 5 6 6 7 8 9 9 9 10 11 12 12 12 12 13 13 12 12 12 11 11 10 10 9 9 9 9 8 7 7 7 6 5 5

GFSNE_con_lsi_045.txt.gz
Lid_Strength_Index
5 5 6 6 6 6 6 6 7 10 9 6 6 4 3 3 4 4 4 5 5 5 5 4 4 4 3 3 3 3 2 2 2 1 1 1 1 0
6 6 6 6 6 6 6 5 5 7 9 6 5 4 3 4 4 4 4 5 5 5 5 4 4 3 3 3 3 3 3 3 3 2 2 2 1 1
6 6 6 6 6 5 5 5 5 5 7 5 4 4 4 5 4 4 5 5 4 5 5 4 4 4 4 4 4 4 4 4 4 3 3 3 2 2
7 6 6 7 5 4 5 5 5 5 5 6 4 5 5 4 4 5 6 5 4 4 5 4 4 4 4 4 4 4 4 4 4 4 4 3 3 3
7 6 6 5 5 4 4 5 5 5 5 6 6 5 5 5 5 5 5 4 4 5 5 5 5 5 5 5 4 4 4 4 4 4 4 4 4 3
7 7 5 5 5 4 4 5 5 5 5 6 6 6 6 5 6 7 6 5 5 5 4 5 5 5 5 5 5 5 5 4 4 4 4 4 3 3
7 6 5 4 5 5 5 4 5 5 6 6 7 6 6 6 7 7 7 6 5 4 4 4 5 5 4 4 4 5 5 5 4 4 4 4 4 3
7 5 5 6 6 6 5 6 5 5 6 6 7 7 6 6 7 7 7 7 8 4 5 5 5 5 5 4 5 5 5 4 4 4 4 4 3 3
5 5 5 6 6 5 5 5 5 6 7 5 6 6 6 6 7 7 6 7 7 5 6 7 5 6 4 5 5 5 4 4 4 4 4 3 3 4
5 5 5 5 6 5 5 5 5 4 5 6 5 5 5 6 6 6 6 6 6 5 5 8 5 6 5 4 4 4 4 4 4 4 4 4 4 4
5 5 5 5 5 6 5 5 5 5 5 6 6 5 6 6 5 5 6 7 8 7 5 6 6 6 5 5 3 4 4 4 4 4 4 4 4 4
5 5 7 5 5 5 4 5 6 5 5 6 5 5 5 5 6 5 6 7 8 8 5 7 7 7 8 5 4 4 3 4 4 4 4 4 4 2
6 5 4 5 5 5 5 5 5 4 6 5 5 5 6 5 5 4 5 6 7 8 6 6 7 8 8 7 5 5 4 4 3 3 3 2 2 2
5 4 3 4 5 5 5 5 5 6 5 5 5 6 6 6 5 4 4 5 5 6 5 5 7 8 8 8 8 5 5 4 2 3 2 1 1 0
4 3 4 5 5 5 5 5 5 5 5 6 5 6 5 4 4 5 5 5 5 6 6 5 6 6 7 8 8 7 6 4 2 2 0 1 1 1
5 4 4 5 5 4 4 4 4 4 5 5 5 5 5 5 5 5 6 5 7 7 6 5 6 6 7 7 7 7 5 5 2 2 2 2 2 1
5 4 4 5 5 5 5 5 4 4 5 4 5 5 6 6 5 5 6 6 7 7 7 6 5 5 6 6 7 6 4 4 3 3 3 3 2 3
6 6 5 5 5 5 5 5 5 5 5 5 5 5 6 6 5 5 6 6 7 7 7 6 6 6 5 5 5 6 5 4 4 3 3 3 4 3
6 6 5 4 4 5 5 5 5 4 4 5 5 5 5 5 6 6 6 7 7 7 7 6 6 7 8 9 5 6 5 5 4 3 3 3 4 4
6 5 5 3 3 4 4 5 5 4 5 5 5 5 5 5 6 6 6 7 7 7 8 7 7 7 8 8 8 5 5 5 5 5 4 3 2 4
10 7 4 3 3 4 3 4 4 4 4 5 5 5 5 6 6 5 6 8 9 8 8 8 6 7 6 5 8 6 4 5 5 5 5 5 5 4
12 11 10 4 3 3 3 4 4 4 5 5 5 5 5 5 5 6 6 6 7 7 7 7 6 6 6 7 7 6 5 4 4 5 5 5 6 7
13 12 11 10 8 3 3 3 4 4 4 5 5 5 5 7 6 5 5 6 7 8 8 8 7 6 7 7 7 7 7 6 5 5 5 6 5 5

GFSNE_con_lsi_048.txt.gz
Lid_Strength_Index
5 5 5 4 5 5 5 6 7 9 8 5 5 3 3 3 3 3 3 2 4 4 4 4 4 3 3 3 2 2 2 2 2 2 2 2 2 2
6 6 5 5 5 5 5 6 6 7 8 5 4 3 3 3 3 3 2 3 3 3 4 4 4 3 3 3 3 3 3 2 2 2 2 2 2 2
6 5 5 5 5 6 5 5 6 5 6 5 4 3 4 3 3 2 2 3 3 3 4 4 4 4 3 3 3 3 3 3 2 2 2 2 2 2
5 5 6 6 5 5 6 6 6 4 5 6 4 4 3 2 2 3 3 4 3 3 4 4 4 4 4 4 4 3 3 3 3 3 3 3 3 2
5 6 6 6 6 5 6 6 4 4 4 5 5 3 3 2 3 3 3 3 3 3 3 3 4 4 4 4 4 4 4 4 4 4 4 4 4 4
6 6 5 5 6 5 5 4 4 4 4 4 4 4 3 3 3 5 5 4 4 3 3 3 3 3 3 3 4 4 4 4 4 4 4 4 4 4
5 5 5 5 5 5 3 3 4 5 4 4 4 4 4 4 5 4 5 5 4 3 3 2 2 2 2 3 3 3 4 4 4 4 4 4 3 3
6 6 5 5 5 6 6 6 4 3 3 4 4 5 4 4 4 4 5 6 6 2 3 4 3 3 3 2 3 4 4 4 4 4 4 4 4 4
6 6 5 4 4 3 6 6 6 6 6 3 4 4 4 4 4 5 5 5 5 3 4 5 3 4 2 3 3 3 4 4 4 4 4 4 4 4
5 5 4 4 3 3 3 3 3 2 3 3 3 3 3 3 3 4 4 4 4 3 3 6 3 4 3 3 3 3 4 4 4 4 4 4 4 4
5 5 4 4 5 5 4 3 3 2 2 4 4 4 5 6 5 4 5 6 6 5 3 5 4 5 4 3 3 3 4 4 3 3 4 4 4 4
5 5 6 5 5 6 4 3 4 3 3 3 4 4 5 4 5 4 4 6 6 6 4 5 5 5 6 4 3 4 4 3 3 3 3 3 3 3
6 5 4 6 6 5 5 3 3 2 3 3 3 3 3 3 3 3 3 4 5 5 3 4 5 6 6 7 5 4 4 3 3 3 3 3 3 3
7 5 4 4 4 4 4 4 4 4 3 3 4 4 4 4 3 3 3 3 3 4 3 4 5 6 6 7 7 5 4 3 2 2 2 2 1 1
6 5 6 5 4 4 4 4 4 3 3 4 4 4 3 3 3 3 3 3 3 3 4 4 4 5 5 7 6 6 6 4 2 2 1 1 1 0
7 5 6 6 5 4 3 3 2 3 3 3 3 3 2 2 4 4 4 4 5 4 3 3 4 5 5 6 5 6 5 5 2 2 2 2 1 2
9 7 6 6 5 4 3 3 3 3 3 3 3 3 3 3 4 4 4 4 5 5 5 4 4 4 4 5 6 5 5 4 3 2 2 2 1 2
8 8 7 6 5 4 3 3 3 4 3 2 2 3 3 3 4 4 4 5 5 5 5 5 4 5 5 3 3 5 5 4 3 2 2 3 3 2
9 9 7 6 4 4 3 3 4 3 3 3 3 3 3 3 4 4 4 5 5 5 5 4 5 5 7 8 3 5 5 5 4 4 3 3 3 3
10 10 10 8 7 6 2 2 2 2 4 4 3 3 3 3 4 5 5 5 5 5 5 5 5 5 6 7 7 5 4 4 4 5 5 3 2 3
11 11 10 9 8 8 4 2 3 2 3 3 3 3 3 3 4 4 4 5 5 5 6 6 4 6 5 4 6 5 3 4 4 5 5 5 4 3
12 12 11 10 9 8 8 5 2 2 2 3 3 3 3 3 4 4 4 5 6 5 5 5 4 5 5 5 6 5 4 3 3 4 5 5 5 6
12 12 11 11 10 9 9 8 6 2 2 2 2 3 3 4 3 4 4 5 5 5 5 6 5 5 6 6 6 6 5 5 5 4 3 5 5 5

GFSNE_con_lsi_051.txt.gz
Lid_Strength_Index
6 5 6 6 5 4 5 6 7 9 9 6 6 5 5 5 4 4 4 4 4 4 4 4 3 3 3 2 2 2 1 1 1 1 1 1 1 1
7 7 7 5 5 5 5 5 6 7 9 7 7 6 4 4 3 3 3 3 3 3 2 3 4 3 3 3 3 2 2 2 2 2 1 1 1 1
7 7 6 4 4 4 5 5 6 6 8 7 6 4 3 3 3 3 3 3 2 2 2 3 3 4 4 3 3 3 3 2 2 2 2 1 1 1
7 7 6 5 5 4 5 5 5 6 7 7 5 4 3 3 2 3 3 2 2 2 2 3 3 3 4 3 3 3 3 3 3 3 3 2 2 1
7 6 5 5 6 5 5 5 5 6 5 5 5 4 3 3 3 2 2 2 2 2 2 3 2 2 3 3 3 3 3 3 3 3 3 3 3 2
6 6 6 6 5 5 5 4 4 4 4 5 4 4 3 2 2 3 3 2 3 3 3 3 2 2 2 2 2 2 2 3 3 3 3 3 3 3
6 6 5 5 6 6 5 4 3 4 4 4 5 4 3 3 3 2 3 3 3 3 3 2 2 2 2 1 2 1 2 3 3 3 3 3 3 3
6 5 4 6 5 7 6 6 5 4 3 3 3 3 2 3 2 3 4 5 6 2 3 3 2 3 2 2 2 3 3 3 3 3 3 3 3 3
5 5 6 5 6 5 6 7 6 6 7 3 3 2 2 2 2 3 4 4 5 3 3 5 2 3 2 2 2 2 2 3 3 3 3 4 3 3
6 5 5 5 4 5 4 3 3 3 3 3 3 2 1 1 1 3 3 4 4 3 2 5 3 3 2 2 2 2 2 3 3 3 3 3 4 4
6 6 6 5 6 6 4 4 3 3 2 2 2 2 4 5 5 3 4 5 5 5 3 4 3 4 3 3 2 3 3 3 3 3 3 3 3 4
7 6 8 7 7 7 4 4 4 3 2 1 1 2 3 3 5 4 4 5 5 5 3 4 5 5 6 3 3 2 2 3 3 3 3 3 3 3
10 8 7 8 7 7 6 4 4 2 3 2 2 2 2 2 2 3 3 4 4 5 3 4 5 5 5 6 4 3 3 3 3 2 2 2 3 3
12 10 9 9 8 8 6 5 5 5 4 3 3 3 2 2 2 2 2 2 2 3 2 3 4 5 6 6 7 4 3 3 2 3 2 2 2 2
11 11 11 9 8 7 6 5 6 5 5 5 4 3 1 1 1 2 1 1 2 2 3 3 3 4 5 6 6 5 5 4 3 3 2 2 2 1
12 11 11 10 9 8 7 5 4 5 5 4 3 2 1 1 2 1 2 2 3 4 3 2 2 4 5 6 5 5 5 5 3 2 2 1 1 1
13 11 9 7 7 6 5 5 4 4 4 3 3 2 2 2 2 2 2 3 4 5 4 3 2 3 3 4 5 5 4 4 3 3 2 2 2 2
12 10 9 8 8 8 7 6 5 4 3 3 3 2 2 2 2 2 3 4 4 5 4 4 4 5 4 3 3 4 4 5 4 3 3 3 3 2
11 10 10 9 9 9 8 7 8 5 2 2 2 2 1 1 2 3 3 4 4 4 4 3 4 5 7 8 4 5 5 5 5 4 4 4 5 3
11 11 10 10 10 10 9 9 7 8 2 2 2 2 1 2 2 3 3 4 4 5 4 4 4 5 6 6 6 4 4 5 5 5 5 4 3 3
11 11 10 10 11 10 9 9 9 9 3 2 2 3 2 2 3 3 3 4 4 5 5 5 4 6 4 5 6 5 3 3 4 4 5 5 5 4
12 12 11 11 11 10 10 9 10 9 7 2 2 2 2 2 2 3 3 4 4 4 5 4 4 5 5 6 6 5 4 3 3 4 5 6 6 7
12 12 12 11 11 10 10 10 10 10 7 7 3 1 2 2 2 2 3 3 4 5 5 5 5 5 6 6 6 6 5 5 4 5 4 5 5 5

GFSNE_con_lsi_054.txt.gz
Lid_Strength_Index
7 7 8 7 6 6 6 6 9 13 12 9 8 6 7 7 7 8 8 5 5 5 5 4 4 4 4 3 2 2 2 1 1 1 1 1 0 0
7 8 8 7 7 5 5 7 8 10 12 9 8 8 7 7 6 7 7 4 4 4 3 3 2 2 3 2 3 3 2 2 2 2 1 1 1 0
9 8 7 6 7 6 6 7 9 9 10 9 8 8 8 7 7 6 6 6 6 3 2 2 2 2 2 3 3 3 2 2 2 2 2 1 1 1
7 7 7 6 6 5 6 7 8 8 8 9 9 8 8 7 6 7 5 4 6 3 2 2 2 2 2 2 3 3 2 2 2 2 2 2 2 2
7 7 7 6 6 6 7 7 7 6 7 9 9 8 7 7 7 6 6 6 4 2 1 2 1 1 2 2 2 2 2 2 2 2 2 3 3 2
7 7 6 6 7 6 6 6 6 7 7 7 8 8 8 7 7 7 7 6 6 3 2 3 2 1 1 1 1 1 1 1 2 2 2 2 3 3
7 6 6 6 6 6 5 6 8 8 8 8 8 8 8 8 8 6 6 6 6 4 6 6 5 5 5 2 1 1 1 1 1 2 2 2 3 2
8 7 6 6 6 7 6 7 8 8 9 9 7 7 7 5 6 6 6 7 8 5 7 7 5 6 5 4 2 2 2 2 2 2 3 3 3 3
8 8 8 7 8 7 8 8 9 8 9 7 7 7 6 5 5 6 6 6 6 6 7 8 7 7 5 3 2 1 1 1 2 2 2 3 3 3
9 8 9 8 8 8 9 9 8 7 7 7 7 6 5 5 5 4 5 5 7 7 6 9 7 7 5 5 1 1 1 2 2 2 2 3 3 3
9 9 9 9 9 8 10 10 9 8 6 5 4 4 3 3 4 6 7 7 10 8 6 7 7 7 6 6 6 2 2 2 2 2 2 3 3 3
12 11 10 10 10 10 11 11 11 9 8 6 5 5 4 5 5 5 5 6 6 8 6 7 7 7 10 6 6 6 6 3 2 2 2 2 2 4
14 14 13 11 11 11 11 12 12 10 8 7 6 5 4 5 5 4 4 5 5 6 5 6 8 7 9 9 8 6 6 6 6 5 3 2 2 2
15 14 14 12 12 11 11 10 9 8 7 7 7 6 5 4 3 3 4 4 4 4 4 4 7 7 9 9 9 7 7 6 7 6 6 3 2 2
14 14 13 13 12 11 10 9 9 9 9 8 8 7 5 4 2 3 3 2 4 4 2 2 5 6 8 9 8 8 8 7 6 6 6 5 5 3
15 15 15 13 12 12 10 9 8 7 7 7 7 5 4 3 3 3 3 4 4 4 3 3 5 5 8 7 7 8 7 9 7 5 6 7 3 3
16 15 14 13 13 13 12 11 10 9 9 8 8 6 4 3 4 3 3 3 5 6 5 5 4 4 5 6 8 7 6 7 5 8 7 6 4 3
15 16 16 15 14 13 13 12 11 10 10 9 9 6 4 4 3 3 3 4 5 5 5 5 6 5 6 6 4 6 6 5 7 5 5 6 6 5
17 16 16 15 14 13 12 12 12 11 11 10 9 6 3 3 3 3 3 4 5 5 5 5 5 7 9 11 7 3 8 7 5 6 5 5 6 6
14 14 15 14 13 13 13 12 12 12 12 11 10 5 3 4 4 4 4 5 5 5 5 5 6 6 9 11 12 10 3 10 8 6 6 8 6 4
14 14 14 14 14 13 13 13 12 13 11 11 9 6 3 3 4 5 4 4 4 4 6 6 6 5 7 8 14 12 9 3 4 7 8 10 9 7
15 14 14 14 14 14 14 13 13 13 12 11 10 9 9 4 5 7 5 4 5 4 5 5 6 6 7 7 10 12 8 6 4 3 4 6 10 12
16 14 15 15 14 14 14 14 13 14 12 12 10 11 10 9 4 5 3 4 4 5 5 6 6 6 7 7 8 10 9 10 7 8 9 4 4 4

GFSNE_con_lsi_057.txt.gz
Lid_Strength_Index
8 8 8 8 7 7 6 7 8 10 12 9 9 7 8 7 7 6 8 5 5 5 5 4 4 4 3 3 3 3 2 2 1 1 1 1 0 -0
7 7 7 6 6 6 5 6 6 8 10 10 9 9 8 7 7 7 8 6 5 5 5 4 4 3 2 2 2 2 2 2 2 2 1 1 0 0
7 7 8 6 7 6 6 6 7 8 9 11 10 9 10 9 8 8 7 7 7 5 5 4 3 2 1 1 2 2 2 2 2 2 1 1 1 1
7 7 7 6 7 6 6 7 7 7 9 11 10 9 9 8 9 9 7 6 7 5 3 3 2 2 1 1 1 1 2 2 2 2 1 1 1 1
7 7 7 7 7 7 7 7 7 6 8 9 9 10 8 9 9 9 9 8 6 3 3 2 1 1 1 1 1 1 1 1 1 1 1 2 2 2
7 7 7 7 7 7 7 7 7 7 7 8 8 7 10 7 8 8 8 8 7 5 3 3 2 1 0 1 1 1 1 0 0 0 1 1 1 2
7 7 7 7 7 7 7 8 8 9 10 10 10 11 12 11 10 8 8 8 7 6 7 7 5 6 5 2 2 1 1 1 1 1 1 1 1 2
8 8 8 8 8 8 8 8 8 8 9 10 10 10 10 11 10 9 9 8 8 6 5 8 6 7 6 6 3 2 1 1 1 2 2 1 2 2
10 10 9 8 10 10 10 10 10 9 10 9 10 10 9 9 9 9 8 7 7 6 7 8 7 8 6 4 2 1 1 1 1 1 1 1 2 2
11 11 12 12 11 11 13 13 12 11 10 9 9 8 8 7 7 5 5 5 6 7 6 9 8 8 7 6 2 1 1 1 1 1 2 2 2 3
12 13 12 13 12 12 14 15 15 14 11 10 8 7 7 6 4 4 6 8 8 8 6 6 7 7 7 7 5 2 2 2 2 1 2 2 2 3
15 14 13 13 12 13 14 15 15 14 14 13 12 10 7 7 5 4 4 6 7 10 6 5 7 8 10 7 6 6 7 4 3 2 2 2 2 4
16 16 16 14 14 13 12 13 13 12 12 12 11 10 9 7 5 5 5 5 4 5 5 5 8 8 9 8 7 6 7 7 7 6 4 3 2 2
17 16 16 14 14 13 13 12 11 12 11 11 11 10 9 8 6 4 6 4 3 3 4 5 7 7 8 9 9 8 8 8 8 8 7 4 3 3
16 16 15 15 14 14 13 13 13 14 13 12 11 10 8 6 6 5 4 4 4 4 3 4 6 6 7 7 9 8 9 8 8 8 9 7 7 5
17 17 17 16 16 16 15 14 14 14 13 13 12 11 9 9 6 5 4 4 5 5 4 3 4 5 6 6 7 9 9 9 8 8 6 9 9 5
18 19 17 17 17 16 16 15 14 13 13 12 13 12 11 10 9 3 3 3 5 5 5 4 4 4 5 6 9 8 8 8 8 6 7 9 9 7
18 20 24 24 20 18 17 16 15 14 13 13 13 13 12 11 9 3 3 4 5 5 5 4 5 6 6 5 4 7 8 8 7 6 6 9 9 9
20 20 24 24 21 17 16 16 16 14 13 13 13 13 12 11 7 4 3 4 4 5 5 5 5 7 8 9 7 3 7 7 8 8 5 6 10 7
18 19 21 20 18 17 16 16 15 15 14 14 14 13 12 11 10 4 4 4 5 5 5 5 6 6 7 10 11 10 4 11 10 11 8 9 7 5
18 18 20 19 18 16 19 19 18 16 15 15 14 13 12 12 11 6 4 6 7 4 5 5 5 5 5 8 12 14 11 4 5 7 8 10 10 8
21 19 18 16 19 18 21 21 18 17 16 15 15 14 13 12 12 11 7 5 4 4 5 4 5 5 6 7 10 16 10 8 5 3 3 4 9 13
23 19 19 22 21 20 16 18 18 17 16 15 15 14 13 13 12 11 9 7 5 4 4 5 5 5 6 6 8 10 11 12 8 8 9 4 4 4

GFSNE_con_lsi_060.txt.gz
Lid_Strength_Index
6 6 7 6 7 6 6 6 8 9 8 8 9 8 8 8 8 6 7 5 5 5 5 4 4 4 4 4 3 3 3 3 3 2 1 1 0 -0
7 7 7 6 6 5 6 6 6 7 9 9 9 9 8 8 8 7 7 6 5 5 5 5 4 4 3 3 2 2 2 1 1 1 1 1 1 0
7 7 7 6 6 6 6 6 7 7 9 8 9 10 10 10 9 8 7 7 7 5 5 5 5 4 4 2 2 1 1 1 1 1 1 1 1 0
7 6 7 6 7 7 7 7 7 7 8 9 9 10 10 8 7 8 7 7 7 6 5 5 4 4 3 2 1 1 0 0 1 1 1 1 1 0
7 7 7 7 7 7 8 8 8 7 8 9 8 7 8 10 10 9 8 8 7 5 5 4 3 2 1 1 0 1 0 1 0 1 0 1 1 1
7 7 7 7 7 8 8 8 8 8 9 10 10 10 10 9 9 9 9 10 8 6 5 5 3 1 0 0 -0 0 0 -0 -0 0 0 1 1 1
7 7 7 7 7 8 9 8 11 11 11 11 11 11 12 13 12 10 11 9 10 9 9 8 6 5 3 1 0 -1 -0 -1 -0 -0 1 1 1 1
8 8 8 9 10 11 11 11 11 12 12 11 11 11 12 12 11 10 10 12 11 9 8 6 4 5 4 4 2 1 1 0 0 1 1 1 1 1
10 12 12 11 12 13 13 13 13 12 13 13 13 12 12 11 10 10 10 10 9 7 6 7 6 6 5 4 2 1 0 0 1 1 1 1 1 2
13 14 14 14 14 15 16 17 16 16 15 15 15 14 13 12 11 10 10 8 7 6 6 6 8 8 6 6 2 1 0 1 1 1 1 1 2 2
14 15 15 16 14 14 16 17 16 15 13 12 12 11 10 10 9 10 11 10 9 6 8 6 8 8 6 7 5 2 1 1 2 2 1 2 2 2
16 16 15 15 15 14 16 17 17 16 15 14 13 13 11 11 10 10 10 10 9 8 8 7 7 6 6 7 6 6 6 4 3 3 3 3 2 5
17 17 17 15 15 14 14 16 16 16 16 16 15 14 13 13 11 10 8 7 7 7 6 5 5 6 7 8 7 6 6 7 7 6 4 3 3 3
17 17 17 15 14 14 15 15 15 16 17 18 17 16 16 15 12 11 9 6 5 5 4 3 5 7 8 9 9 7 8 8 8 8 8 5 3 3
17 17 16 16 15 15 15 16 16 18 19 19 18 17 16 14 12 10 9 6 4 4 3 3 5 6 7 8 9 8 8 7 8 9 9 9 9 8
17 17 17 16 17 16 17 17 17 18 18 18 18 17 15 14 13 11 11 9 6 4 3 3 4 5 7 6 7 7 8 9 9 9 9 10 9 10
19 19 18 19 19 19 18 18 18 18 18 18 17 17 15 14 13 11 11 10 7 5 6 4 4 4 4 5 8 6 7 8 9 9 7 10 10 9
19 20 22 23 21 20 20 20 19 19 18 17 17 16 16 15 14 13 12 9 5 4 5 4 4 5 5 5 4 7 8 9 8 7 7 11 11 11
20 21 24 23 22 20 20 20 20 19 17 17 17 17 16 15 15 14 12 10 5 5 5 5 4 6 7 10 6 3 7 8 9 10 8 9 12 9
19 20 21 21 20 20 20 20 19 19 19 17 18 18 17 16 15 14 13 13 5 4 5 4 4 5 8 9 9 9 3 10 10 12 10 9 8 5
20 20 20 20 20 20 23 23 25 24 21 22 20 18 18 17 15 14 13 12 9 4 5 5 4 4 5 7 11 12 10 4 6 9 9 11 10 9
20 20 20 20 22 22 23 24 25 24 21 20 19 20 19 17 15 14 13 13 11 7 4 5 4 4 6 6 9 14 11 11 6 3 4 5 10 11
22 21 22 24 23 22 19 24 23 25 20 19 18 18 18 17 15 14 13 12 11 10 5 5 4 5 6 6 7 10 11 13 10 9 9 4 3 4

GFSNE_con_lsi_063.txt.gz
Lid_Strength_Index
5 5 6 6 6 6 6 5 7 9 9 8 8 7 7 9 8 7 7 6 5 5 5 4 3 3 3 3 3 3 3 3 3 3 2 1 1 0
6 7 7 7 6 6 5 6 6 7 9 8 8 8 8 8 8 9 8 6 6 6 5 5 4 4 3 3 3 3 3 2 2 1 1 1 0 0
8 7 8 7 6 6 6 6 6 7 9 8 8 9 9 9 9 10 9 9 8 6 6 5 5 5 4 4 3 2 2 1 0 0 0 0 -0 -0
8 8 7 7 6 6 7 8 7 7 8 9 9 9 10 10 10 10 8 7 9 7 6 6 5 5 5 4 3 2 1 -0 -1 -0 0 1 0 -0
8 8 7 7 8 7 7 8 8 7 8 9 9 9 11 10 10 10 10 9 8 6 6 6 6 5 4 3 2 1 1 -1 0 0 0 -0 0 0
8 7 6 7 7 7 8 8 9 9 11 12 10 10 11 11 12 12 11 10 10 8 7 7 6 5 4 3 2 1 0 0 0 -0 -0 0 0 -0
7 7 7 7 7 8 8 9 10 11 11 11 12 12 12 12 14 13 12 11 11 11 10 9 8 7 6 3 1 1 1 1 1 -1 -1 -0 -0 0
8 7 9 10 10 11 12 12 13 15 16 16 16 16 16 15 14 14 13 13 14 11 12 11 11 10 8 6 3 2 1 1 0 -1 -1 -1 0 1
9 10 11 12 13 15 15 15 15 14 15 16 17 16 16 15 15 15 15 15 15 13 12 12 11 9 6 4 2 1 2 1 1 1 0 0 1 1
13 13 14 15 15 16 17 17 16 16 15 15 17 16 16 15 15 14 14 14 13 12 11 13 9 8 5 4 2 2 2 1 1 0 0 0 1 1
15 15 15 16 15 15 16 16 16 16 14 13 13 12 12 11 12 13 14 14 15 14 12 11 8 7 9 7 6 2 1 1 1 1 1 1 1 2
16 16 15 16 16 15 16 17 17 17 17 17 16 15 13 13 12 13 13 15 14 14 11 11 9 7 8 7 6 5 3 1 1 2 2 2 2 5
17 17 17 16 15 15 15 17 17 17 18 18 18 17 16 16 15 15 14 15 15 14 9 8 9 7 6 7 6 5 5 6 6 6 3 3 3 3
16 17 17 16 15 15 16 16 17 18 19 19 19 18 18 18 16 16 15 14 12 11 9 7 7 6 7 8 8 7 7 8 8 8 8 5 4 3
17 17 16 16 16 17 17 17 18 19 20 21 20 19 18 17 17 16 15 13 12 10 8 6 5 5 5 6 7 8 7 7 8 8 9 9 9 8
17 17 17 17 18 18 18 18 18 19 19 20 20 19 18 18 18 16 16 14 14 13 8 5 4 4 6 6 6 7 8 9 8 8 9 10 10 10
18 18 19 19 20 19 19 19 19 19 20 19 20 20 20 19 18 16 15 15 14 13 10 5 3 3 4 5 7 7 7 8 7 8 7 10 10 9
19 20 22 22 21 20 20 20 20 20 20 20 20 20 21 19 18 16 15 15 15 14 9 5 4 5 4 4 4 6 8 7 7 6 7 9 11 11
20 21 23 23 21 20 21 21 21 20 20 21 21 20 20 18 19 18 16 15 15 13 11 5 4 5 7 8 6 3 7 7 7 9 8 10 12 9
19 21 22 22 21 21 21 21 21 21 22 22 22 21 21 19 20 19 17 17 15 14 11 5 5 5 7 9 8 9 3 8 8 11 11 10 8 5
20 21 20 21 21 21 22 23 25 25 25 26 24 24 23 21 21 19 18 17 15 13 12 6 4 4 5 5 9 10 10 4 5 8 10 12 11 10
21 20 20 20 21 22 23 25 27 27 25 24 23 26 26 22 21 20 18 18 14 13 11 9 4 3 5 6 7 13 11 10 6 3 4 5 10 13
21 21 22 23 23 23 22 24 25 27 24 22 22 21 23 21 19 18 18 16 14 13 12 10 6 4 5 5 7 10 10 12 10 9 9 4 3 4

GFSNE_con_lsi_066.txt.gz
Lid_Strength_Index
3 4 4 5 5 5 6 6 6 8 8 7 7 6 6 7 7 7 7 6 6 5 5 5 4 3 3 2 2 2 2 2 2 2 2 2 2 2
4 5 5 6 6 6 6 7 6 7 8 7 7 7 7 7 7 8 8 7 6 6 6 6 5 4 4 3 3 3 2 2 2 2 2 1 0 -0
5 6 6 7 7 7 7 6 7 6 8 7 7 7 8 8 8 8 8 9 8 7 7 7 6 6 5 5 4 3 3 2 2 2 1 -0 -1 -1
7 7 8 7 7 7 7 7 7 7 8 9 8 9 9 9 9 10 8 8 9 8 7 7 6 6 6 6 5 5 4 3 3 2 0 -0 -1 -1
7 7 8 7 8 7 7 7 7 7 8 9 9 9 10 10 10 10 10 9 9 7 7 7 7 6 6 6 5 5 4 4 3 2 1 0 -0 1
8 7 7 7 7 7 7 7 8 9 10 10 10 11 11 10 11 12 12 11 11 9 8 8 7 7 7 6 6 5 4 3 2 1 1 1 2 1
8 8 8 7 9 7 7 8 9 10 11 11 12 13 14 14 14 13 14 14 14 12 12 10 9 9 8 7 7 6 5 3 2 1 1 2 2 0
9 10 10 10 10 10 11 11 12 14 15 16 16 17 17 15 15 16 16 16 17 13 14 13 12 12 11 10 8 7 6 3 2 2 1 0 0 -0
11 12 11 12 12 13 13 14 14 14 15 16 17 17 17 16 16 17 16 16 16 14 13 14 12 13 11 10 8 6 5 2 2 1 0 1 0 0
12 12 13 14 14 14 15 15 15 15 15 15 16 16 15 15 15 14 15 15 14 13 12 15 12 13 11 9 7 5 4 2 2 1 1 1 0 0
14 14 14 14 14 13 15 15 16 15 15 15 15 15 15 14 14 15 16 16 17 16 12 14 13 13 11 10 7 5 4 3 2 1 1 -0 0 1
15 15 14 15 14 14 15 16 17 17 18 18 17 17 16 16 15 15 16 18 17 17 12 15 14 12 13 8 8 7 6 4 2 0 1 1 1 2
17 17 16 14 14 14 15 16 17 17 18 18 18 18 17 17 16 16 15 16 17 17 13 13 14 13 11 9 7 7 6 3 2 2 2 2 2 2
17 17 16 14 15 16 16 17 17 18 19 20 20 19 19 18 17 17 16 15 14 14 13 13 14 13 11 9 9 7 6 5 4 4 4 4 3 3
17 16 16 15 16 17 17 18 18 20 20 21 21 20 19 18 18 17 16 16 15 14 13 12 12 11 9 8 8 7 6 5 5 4 4 4 4 4
17 17 17 17 18 18 18 19 19 20 21 21 21 20 19 19 19 18 18 17 17 16 12 11 9 8 8 6 6 6 5 5 5 5 5 5 5 5
18 18 19 19 20 20 20 20 20 20 21 21 21 21 21 20 20 18 19 18 18 17 15 12 10 5 4 5 6 5 5 5 4 5 5 5 5 4
19 20 22 22 21 21 21 21 21 21 21 21 22 21 21 21 21 19 19 19 18 16 15 13 12 7 6 5 3 4 4 5 4 4 5 6 6 5
20 21 22 23 22 21 21 21 22 21 21 22 22 22 21 21 21 21 20 18 18 16 15 13 12 9 7 7 4 2 4 5 5 5 5 6 6 5
20 22 22 22 22 22 22 22 22 22 22 23 22 22 22 22 22 21 20 20 19 17 16 13 12 7 6 6 5 4 2 4 5 5 6 6 5 5
21 21 21 21 22 22 22 23 23 23 23 24 24 24 24 22 22 21 21 21 19 18 16 14 11 9 8 4 5 6 5 3 4 5 6 6 6 6
21 21 21 21 22 22 23 23 24 24 24 24 23 24 24 23 22 21 20 20 19 18 16 13 10 8 6 5 6 6 6 6 5 3 4 4 5 7
22 22 22 23 22 23 22 23 24 25 24 24 23 22 24 23 21 20 19 19 18 18 16 13 10 9 6 4 5 6 7 8 6 6 5 4 4 4

GFSNE_con_lsi_069.txt.gz
Lid_Strength_Index
0 2 1 1 1 3 3 4 5 9 7 4 4 3 4 3 5 4 4 5 6 6 6 5 5 4 4 3 2 2 1 1 2 2 2 2 2 2
0 2 1 1 3 4 4 4 4 5 7 4 4 4 5 6 5 5 4 7 7 7 7 7 6 5 5 4 4 3 3 2 2 2 2 2 2 1
2 2 2 3 4 5 6 6 6 5 6 6 6 5 5 3 5 4 4 5 5 7 8 7 7 7 6 6 5 5 4 4 3 2 2 2 2 1
4 4 4 5 6 7 6 7 7 7 6 7 6 5 5 6 6 5 6 7 6 7 8 7 7 7 7 7 7 6 6 5 5 4 3 3 2 1
4 6 6 6 7 7 7 8 7 7 6 7 8 7 7 7 7 6 7 7 8 8 9 8 8 8 7 7 7 7 6 6 6 5 4 4 3 1
6 6 7 8 8 8 7 8 7 7 8 8 9 8 8 6 7 9 10 10 11 10 10 10 10 9 8 8 8 7 7 7 6 6 5 5 4 1
7 8 8 7 8 8 8 8 8 8 9 9 9 9 9 9 11 10 12 12 11 11 10 10 10 10 9 9 8 8 8 8 7 6 6 4 3 2
9 10 10 10 11 11 11 10 9 9 10 9 10 10 11 12 12 12 13 13 14 10 12 12 10 11 10 9 9 9 8 8 7 6 5 3 3 3
11 12 13 13 13 13 13 13 13 13 13 11 11 12 13 12 12 13 14 14 14 12 12 14 11 12 10 10 9 9 9 8 7 6 4 3 3 2
13 13 14 14 14 14 14 14 14 13 12 12 11 12 12 12 13 13 13 13 13 12 12 15 12 12 10 9 9 8 8 8 7 5 4 3 3 1
15 15 15 15 14 13 14 14 14 13 14 15 15 15 15 15 14 14 15 16 16 15 13 14 13 12 12 10 8 8 8 7 7 5 3 3 1 0
16 16 15 14 14 14 14 13 14 15 15 16 15 15 16 15 16 15 15 17 16 16 12 14 14 13 14 10 8 7 6 6 5 5 3 2 0 0
17 17 15 14 14 14 14 14 15 15 17 17 16 16 16 16 16 16 16 16 16 16 13 13 14 13 13 13 10 7 5 4 4 3 3 2 2 1
17 15 14 14 15 15 15 16 17 17 17 17 18 18 18 18 18 17 17 16 15 15 13 13 14 13 13 13 11 7 5 3 3 2 1 2 3 3
15 15 14 15 16 16 17 18 18 17 18 18 19 19 19 18 18 17 16 16 15 14 13 12 12 12 12 11 10 8 6 4 2 1 1 1 1 1
16 15 16 16 17 17 17 17 18 18 19 19 19 19 19 19 19 18 18 17 17 15 12 11 11 11 11 9 8 7 5 5 2 1 1 0 1 1
17 17 17 18 18 18 18 18 18 19 19 19 20 20 20 20 19 18 18 18 18 17 15 13 10 9 8 9 7 5 5 4 2 1 2 2 1 1
17 18 19 19 19 19 19 19 19 20 20 21 21 21 21 20 20 19 18 18 18 17 16 12 11 10 8 6 4 4 4 3 2 1 1 2 2 1
18 19 20 19 19 19 19 20 21 21 21 21 21 21 21 20 21 20 19 18 18 16 14 12 12 11 11 10 4 3 3 2 2 2 1 2 2 2
18 19 19 19 19 20 20 21 21 21 21 21 21 21 21 21 20 20 19 18 17 16 15 13 11 11 12 11 10 3 2 1 2 2 2 1 1 4
19 19 19 19 20 20 20 21 21 22 22 22 22 21 21 20 19 19 18 18 18 16 15 14 12 11 10 8 8 4 2 2 1 1 1 2 3 3
20 20 20 20 21 21 21 21 21 21 21 21 21 20 19 19 19 18 18 17 16 16 15 13 11 10 10 10 8 3 2 2 2 3 3 3 3 5
21 21 21 21 21 21 22 22 22 21 21 20 20 19 19 19 18 17 17 17 16 16 15 14 12 11 10 9 8 3 2 3 2 3 2 3 3 3

GFSNE_con_lsi_075.txt.gz
Lid_Strength_Index
0 0 0 0 0 0 0 1 3 5 5 2 2 2 1 1 4 3 3 6 6 6 5 5 4 4 4 4 4 4 4 3 3 3 3 3 3 2
0 0 0 0 0 0 0 1 1 3 5 2 2 2 2 3 5 4 3 5 6 6 6 6 5 5 5 5 5 5 5 5 5 5 4 4 4 4
0 1 1 0 1 0 1 1 1 2 4 4 5 4 5 5 6 4 3 3 3 6 6 6 7 7 7 6 6 6 7 7 7 7 7 7 6 6
1 1 1 1 1 1 1 2 3 4 4 5 7 7 7 6 6 5 3 3 2 5 6 7 7 8 8 8 8 8 8 8 9 8 9 8 8 8
1 1 1 1 1 1 2 3 3 4 5 5 8 7 7 7 6 6 6 4 4 5 8 8 8 8 8 8 8 9 9 9 9 9 9 9 9 9
1 1 1 1 2 2 4 4 5 6 7 7 8 8 8 7 8 7 7 6 6 6 7 9 8 8 8 9 10 9 9 9 9 9 9 10 10 9
1 1 1 3 5 4 4 5 6 7 8 8 9 9 9 9 9 7 8 7 7 7 8 8 8 8 8 9 9 8 8 9 9 9 9 9 10 9
2 1 2 6 7 9 9 8 7 7 8 8 10 10 10 9 9 9 10 11 11 7 8 9 8 9 9 8 9 10 10 10 10 9 9 9 9 9
2 3 7 8 9 11 13 13 13 13 12 10 11 11 11 11 10 11 12 11 11 9 10 11 9 10 9 9 9 10 10 10 10 10 9 9 9 8
4 7 10 12 12 13 14 15 15 15 15 13 12 13 13 12 12 12 11 11 10 10 10 13 10 11 9 9 9 9 10 9 9 9 9 8 8 8
13 12 13 14 14 13 15 15 15 16 15 15 15 15 15 15 15 13 13 13 13 13 11 12 12 12 11 11 10 10 10 10 10 9 8 8 7 7
15 15 15 15 15 15 15 16 17 17 17 17 17 16 16 17 17 15 14 15 15 15 12 13 14 13 15 11 11 10 10 9 9 8 7 7 6 5
17 17 16 15 15 15 15 15 16 16 17 15 15 15 15 14 14 15 14 15 15 15 13 14 15 15 15 15 13 12 11 9 7 6 6 6 6 5
17 17 16 15 16 16 17 16 16 16 16 15 16 16 16 16 15 15 14 14 14 15 14 14 16 16 16 16 16 13 11 9 7 6 4 4 5 5
16 16 16 17 17 18 18 17 16 16 16 17 17 16 16 16 16 16 15 15 15 15 15 15 15 16 15 16 15 13 12 10 7 6 4 3 3 3
17 17 17 16 17 18 18 17 17 17 17 17 17 17 17 16 16 16 16 16 17 17 15 14 14 14 15 14 14 14 10 10 7 6 4 3 2 2
17 17 17 17 17 17 18 18 17 17 18 18 18 18 17 17 17 17 17 17 18 18 17 15 13 13 13 14 14 11 10 8 6 5 4 4 2 1
16 17 16 16 17 17 17 18 18 19 18 18 18 18 18 18 18 18 18 18 18 18 17 16 15 15 14 12 10 10 8 7 5 5 3 4 3 1
16 16 16 16 17 17 17 18 18 18 18 18 18 18 18 19 19 19 19 18 18 18 17 15 15 15 16 17 11 7 9 9 8 7 6 2 2 1
17 18 18 18 18 18 18 18 18 18 18 19 19 19 19 19 20 20 19 19 19 18 18 17 16 14 15 15 15 11 8 9 8 7 6 2 0 2
18 18 17 18 18 18 18 18 19 19 19 19 19 19 20 20 20 20 19 19 19 19 19 17 15 13 12 11 13 12 8 6 6 6 5 5 2 2
18 18 18 18 19 19 19 19 19 19 19 20 20 20 20 19 20 20 20 19 19 18 17 15 14 13 13 13 13 12 9 7 6 4 3 3 2 4
19 19 19 20 19 19 20 20 20 20 20 20 20 20 20 20 20 19 19 18 17 17 16 16 14 13 13 13 12 11 10 8 7 6 4 3 2 2

GFSNE_con_lsi_078.txt.gz
Lid_Strength_Index
2 2 1 1 1 1 2 2 4 6 5 4 3 2 1 1 3 3 4 7 7 7 6 6 4 3 3 3 3 3 3 3 3 3 3 3 3 3
1 1 1 1 1 1 1 2 2 3 5 4 3 3 2 1 3 4 5 6 7 8 8 6 5 5 5 5 4 4 4 4 4 4 4 4 5 5
1 1 1 1 1 1 1 1 2 2 4 3 4 4 5 5 6 6 6 7 8 8 8 7 7 6 6 6 6 6 6 6 6 6 6 7 7 7
2 2 1 1 1 1 1 2 2 2 3 4 5 6 6 5 7 7 5 5 6 7 8 8 7 7 7 8 8 8 8 8 8 9 9 9 9 8
1 2 1 2 2 1 2 2 2 3 3 3 5 7 7 7 8 7 7 7 6 7 7 8 8 8 8 8 8 8 8 9 9 9 9 10 9 9
1 1 1 1 2 2 2 2 3 3 4 4 5 7 8 8 7 8 9 8 8 7 7 9 9 9 9 9 9 9 9 9 9 9 9 10 10 10
1 1 1 2 5 3 2 3 3 4 4 5 6 9 9 10 9 9 9 9 9 9 10 11 12 12 12 9 9 9 9 9 9 9 9 9 10 10
2 2 3 6 6 8 7 7 5 4 5 6 7 9 8 9 9 11 11 12 14 10 12 13 11 13 12 12 10 10 9 9 9 9 9 10 10 10
3 2 4 5 7 5 12 12 13 14 15 8 8 12 13 11 12 14 14 14 14 12 13 15 13 14 12 11 10 10 10 10 10 10 10 10 10 10
4 3 3 8 10 11 13 14 15 16 14 13 14 15 14 13 13 13 14 14 13 12 13 17 15 14 13 13 11 10 10 10 11 10 10 10 10 10
12 12 12 12 13 12 14 15 17 16 15 14 14 14 15 15 14 14 15 15 16 15 14 15 15 15 15 15 13 11 10 10 10 10 10 9 9 9
15 14 14 14 14 14 15 16 18 18 18 18 17 16 16 16 16 16 16 17 16 17 16 16 16 17 18 15 15 14 14 11 11 10 10 9 8 10
16 16 15 15 15 15 16 17 18 17 16 16 16 16 15 15 16 16 16 16 17 17 15 16 18 18 18 18 16 15 15 14 13 11 10 9 8 7
17 16 16 15 15 16 16 16 16 16 16 16 16 16 17 17 16 16 16 17 16 17 16 17 18 18 19 19 19 16 15 14 14 13 12 9 7 6
17 16 16 17 17 17 16 16 16 16 17 17 18 17 17 18 17 16 16 16 16 16 16 17 17 17 18 19 19 18 17 15 14 13 11 10 9 6
18 18 18 18 18 17 18 18 18 18 17 18 18 18 17 18 18 17 18 18 19 19 16 16 16 17 18 17 17 18 16 17 14 12 11 10 8 5
18 19 19 19 18 19 18 18 18 18 19 19 19 19 19 19 19 19 19 20 21 20 19 17 16 16 16 16 18 17 16 15 13 12 10 10 8 6
18 18 18 18 19 19 19 19 19 20 19 19 19 19 20 20 20 20 20 21 20 20 19 18 18 18 17 17 14 16 15 14 13 12 11 11 10 7
17 18 19 19 19 19 19 19 20 19 18 19 20 20 21 20 21 21 20 20 21 20 19 19 19 20 21 22 17 14 17 15 15 14 12 11 10 7
19 19 19 19 19 19 19 20 20 20 20 20 21 22 23 21 22 22 22 24 22 21 21 20 19 18 20 22 21 18 12 15 14 14 12 9 7 5
20 20 20 19 19 20 20 20 20 21 22 22 22 22 25 24 25 24 24 24 24 21 22 21 19 18 17 17 20 18 15 11 11 11 10 10 10 7
20 21 20 21 21 21 21 21 22 22 22 23 25 26 27 25 26 26 26 25 22 22 21 19 18 17 17 17 18 18 15 13 10 9 6 6 7 9
21 21 21 21 21 22 22 22 23 24 23 23 24 23 27 26 24 24 24 23 21 21 20 19 18 17 17 17 17 16 15 14 11 10 8 5 4 3

GFSNE_con_lsi_081.txt.gz
Lid_Strength_Index
3 3 2 2 2 2 2 2 3 6 6 5 4 3 3 3 3 3 3 3 5 7 6 5 4 4 4 4 4 2 2 2 2 2 3 3 2 3
2 2 2 2 2 1 2 1 2 3 5 4 3 3 3 2 3 3 4 5 7 7 7 6 6 6 5 5 5 5 4 4 4 4 4 4 4 5
1 1 2 1 2 1 1 1 2 2 4 3 3 4 5 3 3 3 4 5 7 8 8 8 8 7 7 7 7 6 6 5 6 6 6 7 7 7
2 2 2 2 2 2 1 2 2 1 3 4 3 6 5 5 4 6 5 5 6 8 9 8 8 9 9 9 8 8 8 8 9 9 9 9 9 9
2 2 3 3 3 3 2 2 2 2 2 3 3 5 4 7 7 7 6 6 6 7 9 9 9 9 9 9 9 9 9 9 9 9 9 10 10 10
2 2 2 2 2 2 2 2 2 2 2 2 3 4 6 7 6 7 9 7 7 7 7 9 9 9 9 9 10 10 10 9 9 9 10 10 11 10
3 2 2 3 5 3 2 2 2 2 2 3 4 4 9 10 8 7 8 8 9 8 9 9 10 10 10 9 10 9 9 9 9 9 9 10 11 10
3 3 2 5 5 7 7 6 4 2 3 4 4 5 6 7 7 8 10 13 13 10 12 12 11 12 11 11 10 10 10 9 9 9 9 10 10 10
2 2 2 3 6 3 10 12 12 12 13 5 4 4 9 10 12 14 14 14 14 13 12 14 13 13 12 11 11 10 10 10 10 10 10 11 10 10
3 3 4 6 7 9 12 14 15 14 14 12 12 13 13 13 12 13 13 14 13 12 13 15 14 15 13 12 11 10 10 11 11 11 11 11 10 10
9 9 6 8 11 11 13 15 16 16 13 13 14 13 13 13 14 13 14 15 15 15 15 15 15 15 15 15 14 11 12 12 12 11 11 11 11 10
15 15 14 13 13 13 14 15 17 17 17 16 17 16 16 15 15 15 14 16 16 17 17 17 17 17 17 16 16 15 15 14 14 13 11 11 10 12
16 16 15 14 13 14 14 15 17 17 17 17 17 17 16 16 16 15 15 16 17 17 17 17 18 18 18 18 17 16 17 17 16 15 13 12 12 11
17 16 16 15 15 16 16 16 16 16 17 17 17 18 18 18 18 17 17 17 17 17 17 17 19 19 20 20 20 18 18 17 17 16 15 14 12 11
17 16 16 16 16 16 17 17 17 18 18 18 19 19 19 18 17 17 17 17 17 17 17 17 17 17 19 19 20 19 19 17 16 17 16 16 15 13
18 18 19 19 19 19 19 18 18 18 19 19 20 19 18 18 19 18 19 19 19 18 16 16 17 17 19 18 18 19 18 19 17 17 16 15 14 13
19 19 19 20 20 20 20 20 19 19 20 20 20 20 20 20 20 19 19 19 20 20 19 17 17 17 17 18 19 19 18 18 17 17 17 17 16 14
19 19 20 20 20 21 21 22 21 20 20 20 20 21 21 21 21 20 20 21 21 21 21 20 20 21 20 19 17 19 19 19 18 18 17 18 18 14
20 20 21 21 21 21 21 21 22 21 21 21 21 21 21 21 21 22 22 22 22 22 22 21 21 22 23 25 21 17 20 19 19 19 18 17 17 14
20 21 21 21 21 21 21 21 21 21 21 21 22 22 23 23 23 23 23 25 24 23 23 22 22 22 23 24 23 21 16 19 19 19 17 15 12 10
22 22 22 21 21 21 21 22 22 23 23 23 24 25 27 26 27 27 27 26 25 23 24 23 21 19 19 19 24 22 19 15 15 16 15 16 15 13
22 22 22 22 22 22 23 23 23 24 24 24 26 27 28 26 27 27 27 27 24 24 23 21 20 19 20 21 22 21 19 17 14 13 11 11 12 13
23 23 23 24 23 24 23 24 25 25 25 25 26 28 31 30 26 27 28 25 24 23 22 22 21 19 19 19 19 19 19 18 15 14 12 8 7 6

GFSNE_con_lsi_084.txt.gz
Lid_Strength_Index
3 3 3 3 2 2 2 3 5 6 5 5 4 3 3 3 3 4 4 5 6 6 6 5 4 3 3 2 2 1 1 1 2 2 2 2 3 3
2 3 3 3 3 2 2 2 3 4 5 4 4 3 3 3 3 3 3 4 6 7 7 7 6 5 4 4 3 3 3 3 3 4 4 4 4 4
1 2 2 2 2 2 2 2 2 2 4 3 2 2 3 2 2 3 2 3 3 7 7 7 7 7 6 6 6 6 5 5 5 5 5 5 5 5
2 2 2 2 2 2 2 2 2 2 3 4 3 4 5 3 2 2 3 3 3 5 7 8 8 8 8 8 8 8 7 7 7 7 7 7 7 7
3 3 3 2 3 2 2 2 2 2 3 3 3 2 2 5 6 6 5 5 5 6 8 9 9 8 9 9 9 9 9 9 9 9 9 9 9 9
3 3 3 3 2 2 2 2 2 2 2 3 3 2 3 5 5 5 7 6 6 5 7 8 9 9 9 9 9 9 9 10 10 10 10 10 10 10
3 3 3 3 5 4 3 3 3 3 3 3 3 3 5 8 7 5 5 5 8 8 8 9 9 9 9 9 9 10 10 10 10 10 10 10 11 11
4 4 3 6 6 8 7 7 4 3 3 3 3 4 3 5 4 5 7 11 12 10 11 12 11 11 10 10 10 10 10 9 9 9 9 9 10 10
3 3 4 4 7 4 8 9 10 11 10 2 3 3 3 3 4 8 9 11 13 13 12 14 13 13 11 10 10 10 10 10 10 10 10 10 10 11
3 3 4 4 4 5 7 9 10 12 12 11 9 9 11 10 9 10 12 14 14 13 13 16 14 14 13 12 10 10 11 11 11 11 11 11 11 11
3 3 3 4 6 9 9 12 15 15 13 13 13 13 13 13 12 12 14 14 16 16 16 15 16 15 14 14 13 12 13 13 13 13 13 12 12 11
4 11 13 9 8 11 6 11 14 16 16 16 17 16 15 15 15 14 14 16 17 18 18 17 17 17 17 16 16 16 16 15 15 15 14 13 13 15
11 16 16 14 14 14 14 14 15 17 17 17 18 17 18 18 18 17 17 16 17 19 18 17 18 18 18 18 18 17 17 17 16 16 14 14 14 14
17 16 16 15 15 16 16 16 16 17 17 18 19 19 19 19 18 18 18 18 17 18 17 17 18 19 19 20 20 18 17 16 16 16 16 16 15 15
17 17 16 17 16 17 16 17 17 18 18 20 20 20 19 19 18 18 18 18 18 18 17 17 18 18 19 20 20 19 18 17 17 17 17 17 17 16
20 19 19 19 19 19 19 19 19 19 20 20 21 20 20 20 21 20 21 20 20 20 18 17 17 18 20 19 19 19 18 19 18 18 17 17 17 17
18 19 19 20 21 21 21 21 21 20 21 21 22 22 21 22 21 21 21 21 22 21 21 19 19 19 19 20 21 20 20 20 20 20 19 20 18 17
18 20 21 21 22 22 22 22 21 22 22 22 22 22 23 23 22 22 22 22 23 22 22 22 21 21 21 20 19 22 22 21 21 20 19 20 20 18
21 21 21 21 22 22 22 23 23 22 21 22 22 22 23 23 23 23 23 23 23 23 23 22 22 23 26 27 22 19 22 21 21 21 20 20 21 18
21 22 22 23 22 22 22 23 23 23 23 23 24 24 24 24 24 24 24 25 24 24 24 23 23 23 25 27 25 22 18 21 22 22 21 19 17 15
22 23 23 22 22 22 23 23 24 24 25 25 25 25 25 25 25 26 26 26 26 24 25 24 23 21 21 22 28 25 22 18 18 20 19 19 19 17
23 23 23 23 23 23 24 24 24 24 25 26 28 29 30 28 27 27 28 28 25 25 24 23 22 22 22 23 24 25 22 20 17 15 14 14 16 18
24 25 25 25 24 25 25 26 27 28 28 29 28 28 30 30 27 28 28 26 25 25 24 24 23 22 22 22 22 22 21 20 18 17 15 12 10 10

GFSNE_con_lsi_087.txt.gz
Lid_Strength_Index
3 4 4 3 3 3 4 4 5 7 7 5 5 3 2 2 3 3 3 4 5 5 5 5 4 3 2 2 2 1 1 0 0 -0 -0 -0 0 1
2 3 4 3 3 3 3 3 3 4 6 4 4 3 3 3 3 3 3 4 6 7 7 6 5 4 4 4 3 3 2 2 1 1 1 2 2 2
1 2 3 3 3 3 3 3 3 3 4 3 3 3 4 3 2 3 3 3 3 6 7 7 7 7 6 6 5 5 4 3 3 3 3 4 4 4
1 2 2 1 2 2 2 2 3 3 3 4 3 3 4 3 2 2 2 2 2 4 6 7 7 7 7 7 7 6 6 6 6 6 5 5 5 5
2 2 2 2 3 3 3 3 3 3 2 3 3 3 3 3 3 3 3 2 2 4 6 7 8 7 7 8 8 8 8 8 8 8 8 8 7 8
2 2 2 3 2 2 3 3 3 3 3 3 3 2 2 2 4 4 5 5 4 3 6 7 8 8 8 8 8 8 9 9 9 9 10 10 10 10
3 3 3 3 5 4 2 3 3 3 3 3 3 3 3 4 5 3 4 3 4 4 5 7 8 8 8 9 8 9 9 10 10 10 10 10 11 11
4 4 3 6 6 9 8 7 5 4 4 4 4 4 4 3 3 3 3 5 7 8 7 10 9 10 9 9 10 11 11 10 11 10 10 10 10 11
3 3 3 3 6 4 8 9 9 9 8 3 4 4 4 3 2 4 4 4 5 11 11 15 13 12 11 11 11 11 11 11 11 11 11 10 10 10
3 3 3 4 4 5 5 6 7 6 7 7 5 4 3 5 5 4 3 10 13 13 13 15 14 15 13 12 11 11 11 11 11 11 11 11 11 12
4 3 3 4 6 8 5 6 7 14 13 13 13 14 14 13 11 11 13 13 15 16 17 16 16 16 15 15 14 13 13 14 14 14 14 14 14 14
4 4 8 5 8 10 7 6 7 14 16 17 17 17 17 16 16 15 13 13 17 19 19 17 18 17 19 17 17 17 17 16 16 16 15 15 15 16
6 7 16 15 15 14 12 6 9 16 17 18 18 18 18 18 18 18 18 17 19 20 18 18 19 19 19 19 19 18 18 17 17 17 17 16 16 16
16 16 16 16 16 16 16 16 16 17 18 19 19 19 19 20 19 18 18 18 18 19 18 18 20 20 20 21 21 18 18 17 17 17 17 16 16 15
17 17 17 17 17 18 18 18 18 19 19 20 22 21 20 19 19 19 19 19 19 19 18 19 19 19 20 21 20 20 20 18 17 17 17 17 18 17
18 18 18 19 20 19 19 19 19 19 20 21 22 21 21 21 21 21 21 21 21 21 20 20 21 20 21 21 21 21 20 20 19 19 19 19 18 18
18 18 20 20 20 21 20 20 20 20 21 21 22 22 23 22 22 21 21 22 22 23 23 22 21 20 20 21 22 21 21 21 20 21 21 21 20 19
19 21 21 21 21 21 22 22 22 21 22 22 22 23 23 23 23 23 23 23 24 24 24 23 22 22 22 22 19 22 22 23 21 21 20 22 22 20
20 21 21 21 22 21 22 22 23 23 23 23 23 23 23 23 24 25 24 24 24 24 23 23 23 24 26 28 23 20 23 22 22 22 22 22 23 21
21 22 22 22 22 22 22 23 23 24 24 24 24 24 23 23 24 24 24 24 24 24 24 24 24 24 26 29 27 23 19 23 23 23 22 21 19 17
22 23 23 23 23 23 23 23 24 24 24 25 25 25 25 25 26 25 25 25 25 25 26 25 23 21 21 22 30 28 23 19 19 21 21 22 21 20
24 24 23 24 23 23 24 24 25 25 25 26 27 27 27 26 27 27 27 27 25 26 25 24 22 22 23 24 25 26 24 21 18 17 16 17 20 21
26 25 26 26 25 25 26 27 28 28 28 28 27 28 31 29 28 28 28 27 26 26 25 25 24 23 23 23 23 23 23 22 20 19 18 15 13 12

GFSNE_con_lsi_090.txt.gz
Lid_Strength_Index
4 4 4 4 3 3 3 4 5 7 7 5 5 3 2 3 3 3 3 4 5 6 5 5 4 3 3 2 2 1 0 -0 -1 -1 -1 -1 -1 -1
2 3 3 3 3 3 3 4 3 4 6 5 4 3 3 2 2 2 2 4 5 6 6 6 5 4 4 4 3 3 2 2 1 1 0 0 -0 -1
1 2 2 2 3 3 3 3 3 4 5 4 3 3 4 3 3 2 2 2 3 7 7 7 7 6 6 5 5 4 4 3 3 2 1 1 0 -0
2 2 2 2 2 2 2 3 3 3 3 4 3 3 3 2 2 2 3 2 2 4 6 7 7 7 7 7 7 6 6 5 5 4 4 3 2 2
2 2 2 2 2 2 2 2 2 2 2 3 3 2 2 3 3 3 2 2 2 3 6 7 7 7 7 8 7 7 7 7 7 6 6 6 6 6
2 2 1 2 2 2 2 3 3 3 3 3 3 3 2 2 3 3 3 3 2 2 3 4 5 6 7 7 8 8 7 7 7 8 9 10 10 9
2 2 2 2 5 3 2 2 3 3 3 3 3 3 3 3 4 3 3 2 2 3 2 3 4 5 6 7 7 8 8 8 8 9 9 10 11 11
3 3 3 6 6 8 8 7 4 3 4 4 4 4 4 3 3 3 3 4 5 3 4 4 6 5 6 7 8 9 9 10 10 11 11 11 11 11
4 4 4 3 6 4 8 10 9 9 8 3 4 4 5 3 3 4 4 4 4 3 6 9 11 11 10 9 9 10 11 11 10 10 10 11 11 11
4 4 4 4 4 5 5 5 7 6 6 7 5 3 3 3 3 4 4 5 12 14 12 12 14 14 12 11 10 10 11 11 12 12 12 13 13 14
3 3 4 4 6 8 6 6 6 7 13 12 13 14 14 14 13 8 10 12 14 16 17 15 16 16 16 16 15 14 14 14 15 15 15 15 15 15
4 4 10 13 15 12 7 6 7 7 15 17 17 17 16 16 16 17 14 10 14 18 18 17 18 17 19 18 19 18 17 16 16 16 16 16 16 16
16 16 16 15 15 14 14 13 13 16 17 18 18 18 19 18 19 18 19 17 19 21 19 18 19 19 19 19 19 18 18 18 18 18 17 17 17 17
17 17 16 16 16 15 16 16 16 18 19 20 20 20 21 20 20 20 20 19 19 20 19 18 20 19 20 20 20 18 18 18 18 18 18 17 17 17
16 16 17 17 18 18 18 18 18 19 19 20 21 22 21 20 20 20 19 20 21 21 20 21 19 20 20 21 21 20 20 19 19 20 19 19 19 19
16 17 17 18 19 20 19 19 20 20 20 22 22 22 21 22 21 20 21 21 23 23 21 20 21 20 21 21 21 22 21 22 21 21 20 20 19 19
17 18 19 19 19 20 20 20 20 20 21 20 22 22 21 21 22 21 22 22 24 24 24 23 21 20 21 21 22 22 22 22 21 21 20 21 20 19
19 20 20 20 20 20 21 21 21 21 21 21 21 21 22 22 23 23 23 23 24 25 25 24 23 23 22 21 20 22 22 22 21 21 21 23 22 19
21 21 21 21 21 21 22 22 22 22 21 22 22 22 22 23 23 24 23 23 24 24 24 23 23 24 26 27 23 20 23 23 22 22 21 21 22 20
22 22 22 22 22 22 22 22 23 23 23 23 24 23 23 23 23 23 23 23 23 24 24 24 24 24 25 26 25 22 20 21 22 22 21 20 19 18
23 23 23 23 23 23 23 23 23 24 24 24 24 24 24 24 24 24 24 25 24 24 25 25 24 21 21 22 25 24 22 19 19 21 21 21 21 20
25 25 25 24 24 24 25 24 25 25 25 25 26 26 25 25 25 25 25 25 25 24 24 23 22 22 22 23 24 24 22 21 19 18 18 19 20 22
28 27 27 26 26 26 26 27 28 29 27 27 26 27 28 27 26 26 25 25 24 25 24 24 24 23 23 23 24 24 23 22 21 20 18 15 14 13

GFSNE_con_lsi_093.txt.gz
Lid_Strength_Index
3 3 3 2 1 1 1 2 3 5 5 3 3 2 3 2 2 1 1 3 5 6 5 5 4 3 3 2 2 1 0 -0 -0 -1 -1 -1 -1 -1
2 3 2 2 2 1 2 3 3 4 4 3 3 2 3 3 3 3 2 4 5 6 6 6 5 4 4 4 3 3 2 2 1 0 0 -0 -1 -1
2 2 3 2 2 2 2 2 3 3 5 4 3 1 1 1 1 1 1 2 2 6 7 7 7 6 6 6 5 4 4 3 3 2 2 1 -0 -0
1 1 1 1 2 1 2 2 1 1 3 4 3 1 1 0 2 2 2 2 2 3 6 6 7 7 7 7 7 6 6 5 5 4 3 3 2 1
1 1 1 1 1 1 1 1 1 1 1 2 2 1 0 0 0 1 1 1 1 2 5 7 6 6 6 7 7 7 7 7 6 6 6 5 5 3
0 0 0 1 1 1 1 1 1 1 1 2 2 2 1 0 0 1 2 0 1 -1 1 3 4 5 6 6 7 7 7 7 7 7 7 8 8 7
1 1 1 1 4 2 1 1 1 2 2 3 3 2 2 2 2 1 2 1 1 -0 0 -0 -0 -1 0 5 5 7 7 7 7 7 7 7 8 9
1 1 0 4 4 8 7 7 2 2 2 3 3 4 3 3 2 2 2 3 4 1 1 1 -0 0 0 0 6 8 8 8 7 7 8 10 10 11
3 3 3 2 5 2 7 10 9 9 8 3 4 4 4 3 3 3 3 3 4 2 3 3 9 10 11 10 10 9 9 10 10 10 10 11 11 11
3 3 3 3 4 4 4 4 5 4 6 6 5 4 4 8 7 5 4 3 3 11 11 7 13 15 14 14 12 12 12 12 12 13 13 14 14 14
3 7 12 11 13 12 7 5 5 6 14 12 14 15 16 16 15 12 10 11 8 15 17 15 15 17 18 18 16 14 14 15 15 15 15 15 15 15
14 15 15 14 14 14 11 10 8 9 16 17 17 17 17 17 17 17 16 14 14 16 18 17 17 17 20 18 18 17 17 16 16 15 15 16 15 15
15 16 16 16 16 15 15 15 15 16 17 18 18 19 19 19 19 20 19 19 19 20 19 17 18 18 18 19 18 17 17 17 17 16 16 16 17 16
15 15 15 15 15 16 16 16 16 17 18 20 20 20 19 19 20 19 20 20 20 20 19 17 19 18 19 19 19 18 18 18 17 18 17 18 18 18
14 15 15 15 15 15 15 16 17 18 18 20 20 20 19 18 17 17 17 19 19 19 18 18 18 18 18 19 20 20 19 19 19 19 19 19 19 18
14 14 15 15 16 15 15 15 15 15 16 16 17 16 16 17 17 17 17 19 19 20 20 19 17 17 19 19 19 21 21 21 20 20 20 19 19 18
15 14 15 15 16 16 16 16 15 15 16 16 16 17 17 17 17 17 18 18 20 20 20 19 18 18 18 19 21 21 22 21 21 20 20 19 18 17
15 16 17 17 17 17 17 17 17 17 17 16 16 17 18 18 18 18 18 19 20 20 20 20 20 20 20 20 19 21 20 21 20 20 20 20 19 17
17 17 18 18 18 18 18 18 19 18 18 18 18 18 18 19 19 19 19 20 21 21 21 20 20 20 21 22 20 20 21 20 20 20 19 19 18 17
18 18 19 18 18 19 19 19 19 19 19 19 19 19 19 19 20 20 20 20 20 21 21 21 21 21 22 22 22 20 20 20 19 19 18 16 16 16
19 19 19 19 19 19 19 19 20 20 20 20 20 20 20 20 21 21 21 22 21 21 22 22 21 21 19 18 20 19 18 18 18 19 18 17 17 15
20 20 20 20 20 20 20 20 20 21 21 21 21 21 21 21 21 22 21 21 21 21 21 20 19 19 19 20 20 20 18 18 17 17 17 18 18 17
21 21 21 21 21 21 21 21 22 21 22 21 21 21 22 22 21 21 21 21 21 21 21 21 20 19 19 20 20 19 19 18 16 16 14 14 14 13

GFSNE_con_lsi_096.txt.gz
Lid_Strength_Index
1 0 1 1 0 1 1 2 3 5 5 2 2 0 -0 -0 1 -0 0 3 6 6 6 5 4 3 3 3 2 1 1 0 -0 -0 -1 -1 -1 -1
2 1 1 1 1 0 1 0 1 2 4 2 2 1 -0 1 1 -0 -0 3 5 6 7 7 6 5 4 4 4 3 3 2 1 1 0 0 -1 -1
1 2 2 1 2 1 1 1 1 2 4 3 1 2 1 -0 -0 -0 0 1 2 6 7 7 7 7 6 6 5 4 4 3 3 2 2 1 0 -0
1 2 2 1 1 1 1 1 1 2 3 4 3 1 0 -1 -0 -0 -1 -1 -1 3 6 6 7 7 7 7 7 6 6 5 5 4 4 3 2 1
1 3 2 1 2 1 1 2 1 1 1 2 2 1 1 -0 0 -0 -0 -0 -1 2 5 6 6 6 6 7 7 7 6 6 7 6 6 6 5 4
1 1 1 1 1 1 1 1 1 1 1 2 2 2 1 0 0 1 1 0 0 -1 1 2 3 4 6 6 6 6 6 6 6 7 7 7 7 6
1 1 0 1 4 3 1 1 1 2 2 2 3 2 2 2 2 1 2 1 1 0 0 0 -0 -1 -1 6 5 7 7 7 7 7 7 8 8 8
1 1 0 3 3 8 8 7 3 2 2 3 3 3 2 2 1 2 2 3 4 0 1 1 -0 0 4 9 10 10 9 8 8 8 8 9 9 11
1 1 1 1 5 1 6 9 9 10 10 3 3 3 3 3 2 3 3 3 3 1 3 3 9 14 14 13 11 11 10 10 11 11 11 12 12 13
6 10 9 8 11 12 6 4 4 5 5 6 5 8 14 14 13 10 10 9 8 14 13 13 15 18 17 16 14 13 13 13 13 13 13 14 14 14
14 15 14 14 15 14 11 8 6 9 14 15 15 16 16 16 16 12 12 13 11 14 15 14 16 18 18 18 17 15 15 15 14 14 14 14 15 15
16 16 16 16 16 15 13 11 12 15 15 16 18 18 18 19 18 18 17 15 13 14 18 17 16 17 20 18 17 16 16 16 15 15 15 15 15 15
16 16 16 15 15 15 15 15 16 16 18 18 19 19 19 19 19 18 18 18 18 20 17 15 16 15 17 18 16 16 16 16 15 15 16 17 17 17
15 15 15 14 14 14 14 14 15 14 15 16 16 17 17 17 16 17 16 15 15 16 15 13 14 13 15 15 16 15 16 16 15 16 17 17 17 18
14 14 14 14 13 13 14 13 13 13 14 14 15 15 14 14 13 13 13 13 14 15 14 14 13 13 12 14 15 16 15 15 14 16 16 17 17 16
13 12 13 13 14 13 13 13 13 13 13 14 14 13 13 13 14 13 14 13 14 15 15 15 14 13 14 14 14 15 16 17 16 16 16 16 16 16
12 12 12 13 13 14 14 14 14 14 14 14 14 14 14 14 14 14 14 14 15 16 16 15 14 15 15 15 16 17 17 17 16 17 17 17 16 15
13 14 15 15 15 15 15 15 15 15 15 14 14 15 15 15 15 15 15 15 16 16 16 16 15 15 15 17 17 17 17 17 16 16 16 16 16 14
14 15 15 15 15 15 15 15 16 16 15 15 15 15 15 15 15 16 15 16 17 17 17 17 17 17 17 18 16 18 18 17 17 16 15 16 16 15
15 16 16 16 16 16 16 16 16 16 16 16 16 16 15 16 16 17 17 17 17 17 17 17 18 18 19 19 19 16 17 17 17 17 16 14 14 13
16 16 16 16 16 16 16 16 16 17 16 16 16 16 16 16 17 17 17 19 18 18 18 19 18 19 17 16 17 17 15 16 17 17 16 16 15 13
17 17 17 16 16 16 16 16 16 16 16 16 17 17 17 16 17 18 18 17 18 17 18 17 16 16 16 17 18 17 15 15 13 14 14 15 15 15
17 17 17 17 17 17 17 17 18 17 18 18 17 17 18 17 17 17 17 17 18 17 17 17 16 15 16 16 17 15 15 14 13 13 11 12 12 12

GFSNE_con_lsi_102.txt.gz
Lid_Strength_Index
3 3 3 3 3 3 3 3 5 6 6 4 4 1 1 0 1 1 1 4 6 6 6 5 4 4 3 3 2 2 1 1 0 0 -0 -1 -1 -1
3 2 3 3 3 3 2 2 2 4 6 4 3 2 0 -0 0 0 0 3 5 7 7 6 6 5 4 4 3 3 2 2 1 1 1 0 -0 -1
3 3 2 3 3 2 2 2 3 3 4 4 3 2 2 2 1 1 0 0 0 5 6 6 6 6 6 5 5 4 4 3 3 2 2 1 0 -0
3 3 3 2 3 2 2 2 3 3 3 4 3 3 3 2 2 1 1 0 0 3 5 5 6 6 6 6 6 5 5 5 4 4 3 2 2 1
4 3 4 3 4 4 2 3 2 2 3 3 3 2 2 2 2 1 1 1 0 2 5 6 6 6 6 7 7 7 7 7 8 7 7 7 6 5
4 3 3 3 4 3 2 3 2 2 2 3 3 3 2 2 1 2 2 1 1 0 2 4 6 7 9 9 10 10 9 9 9 9 9 10 9 8
3 2 2 3 5 3 2 2 2 3 3 3 3 3 3 3 3 2 2 2 2 1 1 1 4 9 11 12 11 11 11 10 10 10 10 10 10 10
2 1 1 5 6 9 9 9 6 3 4 3 3 4 3 3 4 4 4 4 5 8 6 6 10 14 14 13 13 12 12 12 12 12 12 12 12 13
10 8 8 10 12 9 9 10 12 13 14 7 6 7 10 13 13 9 7 8 8 11 9 10 14 16 15 14 14 14 13 13 13 13 13 13 14 14
14 13 13 14 14 13 10 12 14 15 15 14 15 16 16 16 15 12 12 11 11 15 15 13 14 16 16 14 13 12 12 12 13 12 12 12 13 13
16 15 15 15 15 13 10 14 16 17 16 16 16 16 16 16 16 13 15 14 14 16 15 15 15 16 15 15 14 13 13 12 12 12 12 12 12 11
16 16 16 16 16 15 15 16 18 18 18 18 17 17 16 16 16 16 15 15 15 15 15 15 14 14 16 15 14 13 13 12 12 13 13 13 13 16
18 18 17 16 16 16 16 17 17 16 16 16 16 16 16 16 15 15 15 16 15 17 15 14 14 14 16 16 15 14 14 14 14 14 13 13 13 15
18 17 17 16 16 16 15 15 15 15 15 16 16 16 16 15 15 17 17 17 17 17 14 13 14 14 14 15 16 14 17 17 17 17 17 14 13 13
17 17 16 16 16 16 15 15 14 15 15 16 16 15 14 14 14 13 15 17 18 18 16 17 17 14 14 16 17 18 18 16 16 17 16 16 16 15
17 17 17 17 16 16 16 15 15 14 14 15 15 14 14 15 17 17 18 17 18 18 16 16 16 17 18 18 17 18 18 18 17 16 16 16 15 15
17 16 17 17 17 17 18 18 17 16 16 15 15 17 18 18 19 18 17 18 20 19 18 17 15 16 17 17 18 18 17 17 17 16 16 16 15 15
17 18 18 18 18 17 17 18 17 18 17 17 18 18 18 18 17 16 17 18 20 19 19 18 17 17 16 16 14 17 17 17 17 16 16 17 17 15
17 18 18 18 18 18 18 18 19 19 18 18 18 18 17 17 18 18 18 18 18 18 18 18 18 19 20 21 16 14 18 17 17 19 17 17 18 16
17 18 18 18 18 18 18 19 19 19 19 18 20 20 20 19 20 18 19 22 19 18 18 18 19 19 22 24 23 18 13 19 19 20 19 17 15 12
18 19 19 19 19 19 19 19 21 21 22 23 22 21 22 20 22 21 20 21 21 18 19 18 18 17 17 17 23 21 17 13 14 17 16 19 18 16
19 19 19 19 20 19 21 21 21 22 21 21 21 23 23 21 21 22 22 22 20 20 19 17 16 16 17 17 20 23 17 16 12 10 10 11 17 19
20 20 21 22 21 21 20 22 22 22 22 21 21 22 22 23 21 21 22 20 19 21 20 19 17 16 16 16 18 18 16 18 14 14 13 9 8 8

GFSNE_con_lsi_105.txt.gz
Lid_Strength_Index
2 2 2 3 3 4 4 4 6 8 6 5 5 3 2 2 3 2 2 4 6 7 6 5 4 3 3 3 2 2 1 1 0 -1 -1 -1 -1 -1
2 2 3 3 4 4 4 3 3 4 6 5 4 4 2 2 2 1 1 3 5 7 7 7 6 4 4 3 3 3 2 2 2 1 1 0 -0 -1
3 3 3 3 3 3 3 3 3 3 5 4 3 3 3 2 1 1 1 1 1 6 6 6 6 6 5 5 4 4 3 3 3 2 1 1 0 -0
3 3 3 2 4 4 3 3 3 3 4 4 4 3 3 2 2 2 2 1 0 3 6 5 6 6 7 6 7 6 6 6 6 5 5 4 3 3
2 3 3 3 3 3 3 3 3 2 3 4 4 3 3 2 2 2 2 1 1 3 5 6 7 8 9 9 9 9 8 8 8 8 8 8 7 6
3 3 3 3 3 4 4 4 3 3 4 4 4 4 3 3 3 3 3 2 2 1 4 9 10 10 11 11 11 11 10 10 10 10 10 10 10 9
3 3 3 4 6 5 3 4 4 4 5 4 4 4 4 3 3 3 2 2 3 5 3 6 10 11 12 12 12 11 11 11 11 11 11 11 12 11
4 3 3 7 8 11 10 11 8 3 4 4 4 4 4 3 6 5 5 5 6 10 7 10 12 14 14 13 12 13 13 13 12 12 12 12 13 13
10 8 9 12 11 8 12 13 13 13 15 8 5 7 10 13 12 10 8 8 9 14 11 12 15 16 15 14 13 12 12 12 12 11 12 12 12 12
14 14 13 13 14 11 12 14 15 15 15 14 15 15 16 16 15 12 12 11 14 16 16 14 15 17 16 14 12 12 12 12 12 12 12 12 11 12
15 15 15 15 14 11 13 16 17 17 15 15 15 15 16 15 15 14 16 14 15 17 17 14 15 16 15 15 13 12 12 12 12 12 12 13 14 14
16 15 15 14 14 14 14 15 17 18 18 17 17 17 16 17 17 17 18 18 15 17 16 16 15 15 17 15 14 14 14 13 13 13 13 13 13 18
17 17 16 15 15 15 16 16 17 17 17 17 17 17 17 17 17 17 19 19 20 18 16 14 15 14 16 16 14 18 19 19 19 17 14 14 14 15
18 17 16 15 15 16 16 16 16 16 17 18 18 18 18 17 20 21 21 19 18 18 17 14 15 15 15 15 16 17 20 19 20 19 19 16 14 13
17 17 16 17 16 17 17 17 17 17 18 19 19 18 18 18 18 18 19 19 20 20 18 19 19 19 18 18 19 20 20 18 18 18 18 17 17 16
17 17 18 18 18 19 19 18 18 18 18 18 19 19 19 20 20 20 21 22 21 20 17 17 17 18 20 18 19 19 19 20 19 18 17 17 16 16
17 18 18 19 20 21 21 21 20 20 20 19 20 22 21 20 19 18 18 19 20 20 20 18 17 17 17 17 20 19 19 19 18 18 16 17 16 16
18 19 20 20 20 20 20 21 20 20 20 19 19 19 19 19 18 18 18 20 21 20 20 20 19 18 17 17 15 18 18 18 18 16 16 18 18 16
19 20 20 21 21 21 21 21 21 19 18 19 20 20 19 18 19 19 20 19 19 19 19 19 20 21 22 25 18 14 19 18 18 19 17 18 19 16
19 19 20 19 19 19 20 20 21 21 20 20 21 20 21 20 20 20 20 23 20 19 19 19 20 20 24 27 26 20 14 20 20 21 19 18 16 13
20 21 21 20 20 21 21 22 22 22 23 23 24 23 25 23 23 22 22 24 22 20 21 20 19 18 18 19 25 23 18 13 14 17 17 20 19 17
21 22 22 22 22 22 24 24 23 24 24 23 25 24 24 24 25 24 24 25 22 22 21 20 18 17 18 17 20 25 19 17 14 12 12 12 16 18
22 23 24 24 23 23 23 24 25 26 25 25 25 24 24 26 23 23 24 22 21 22 21 21 19 18 18 17 19 20 18 19 16 15 14 11 10 9

GFSNE_con_lsi_108.txt.gz
Lid_Strength_Index
2 2 3 3 3 3 3 4 5 8 7 5 5 4 3 3 4 4 3 5 7 7 6 5 5 4 3 3 2 2 1 0 -0 -0 -1 -1 -1 -1
2 2 2 3 3 4 4 3 4 6 7 4 5 4 3 3 4 3 3 5 7 7 7 6 6 5 5 4 4 3 2 1 1 0 0 0 -0 -1
2 2 3 3 3 4 4 4 4 4 5 5 4 4 3 3 3 3 2 2 2 6 7 7 7 7 6 5 5 4 4 3 3 2 1 1 0 0
3 3 3 3 3 3 4 4 4 4 5 6 4 4 4 3 2 3 2 1 1 3 5 6 6 6 7 8 8 8 7 7 7 6 6 5 4 4
2 3 3 3 3 3 3 3 4 4 4 5 5 4 3 3 3 3 3 3 2 3 5 9 8 9 10 10 10 9 9 9 9 10 9 9 9 8
2 2 2 3 3 3 3 3 3 4 4 4 4 4 4 3 4 4 4 3 2 4 8 10 10 10 11 10 10 10 10 10 10 11 11 12 11 10
3 3 3 4 6 5 3 3 4 5 4 4 5 6 6 5 5 3 3 2 5 6 7 9 11 12 12 12 11 12 12 11 11 12 12 12 12 12
3 3 3 7 9 11 12 13 8 4 5 5 4 6 5 4 6 4 3 4 5 10 8 12 12 14 13 13 12 12 12 12 12 13 13 12 12 12
10 7 9 11 10 12 14 14 14 14 14 6 5 7 8 11 11 9 8 7 9 14 11 15 15 16 14 13 13 13 13 14 14 14 13 12 12 12
14 13 13 12 13 12 13 14 15 15 14 14 14 15 15 14 13 11 11 12 14 15 15 15 16 17 16 15 13 14 13 13 13 13 13 13 13 13
15 15 14 14 13 12 14 15 16 16 14 14 15 15 15 14 14 12 14 14 16 17 17 16 16 18 17 16 14 13 13 14 13 14 14 14 14 15
16 16 15 14 13 14 14 15 18 17 16 17 16 16 17 16 17 17 16 15 16 18 17 16 17 18 19 16 15 15 16 14 14 14 15 14 14 19
17 17 16 15 15 15 15 16 17 16 16 16 17 17 18 18 19 19 19 18 19 19 18 16 16 15 16 17 15 18 20 19 20 19 16 15 14 15
18 17 16 16 16 16 16 16 17 17 17 18 18 19 18 19 21 20 20 20 20 20 19 16 18 18 17 17 19 19 21 21 20 20 19 16 15 15
17 17 17 17 17 18 17 17 17 17 18 19 20 20 21 22 20 19 19 20 20 19 18 19 19 19 20 20 20 21 20 18 18 19 18 18 18 17
18 18 19 19 19 19 19 19 19 19 19 20 21 21 21 20 21 21 21 21 22 21 19 19 19 18 20 19 19 20 19 20 19 18 18 17 17 17
18 19 19 20 20 20 21 20 20 20 21 20 21 21 21 21 21 21 21 21 22 22 22 19 17 17 17 17 19 19 19 19 19 18 18 18 17 16
19 21 21 21 22 21 21 21 21 21 21 21 21 20 21 21 21 20 20 21 22 21 21 20 20 18 17 17 16 19 19 19 18 17 17 19 19 17
20 21 21 21 21 21 21 21 22 21 20 21 21 21 20 21 21 21 21 20 20 20 20 20 20 21 23 24 19 16 20 18 19 19 18 19 20 17
21 21 22 21 21 21 22 22 22 22 22 22 22 22 22 21 22 21 21 23 21 20 20 20 20 20 23 25 25 20 15 20 21 21 21 19 17 14
22 22 22 21 22 22 23 23 24 24 24 24 24 23 26 23 23 22 22 23 23 21 22 22 20 18 18 20 24 23 19 14 15 19 18 21 20 18
23 23 23 23 23 23 26 26 25 25 25 25 26 27 27 24 25 25 25 24 23 24 22 21 19 19 19 19 21 26 21 19 16 14 14 15 17 20
24 24 25 25 24 24 25 27 28 29 28 28 27 26 29 27 24 26 25 23 23 23 22 22 21 20 20 19 21 22 21 21 18 17 16 12 11 10

GFSNE_con_lsi_111.txt.gz
Lid_Strength_Index
1 1 2 3 3 3 3 4 5 7 6 5 5 4 3 3 3 3 3 5 7 7 7 6 5 4 4 3 2 2 1 0 -0 -1 -1 -1 -1 -1
1 2 2 3 3 3 4 4 4 5 7 4 4 4 3 3 3 3 3 5 7 8 8 8 7 5 4 4 4 3 3 2 1 1 0 -0 -1 -1
1 2 2 3 3 3 3 3 4 4 6 5 4 4 4 4 3 4 4 4 4 8 8 8 8 7 6 6 7 6 5 4 4 3 2 2 1 1
2 2 2 3 3 3 4 4 4 4 5 6 5 5 4 3 3 3 3 2 2 5 8 7 7 7 7 8 8 8 7 7 7 6 6 5 5 5
2 2 2 3 4 3 4 4 4 4 4 5 5 4 4 4 4 4 3 3 3 9 10 10 10 9 9 9 8 8 8 9 10 10 10 10 9 8
1 2 2 2 3 3 3 4 4 4 4 4 5 5 4 4 4 4 5 4 5 9 10 11 10 9 9 10 10 10 10 10 11 11 11 12 11 10
2 2 2 3 6 4 3 3 3 4 4 4 4 5 5 5 5 4 5 4 7 7 9 10 10 11 11 11 11 11 11 11 11 11 12 12 12 12
3 3 3 6 7 9 9 8 5 4 4 4 4 5 5 4 5 4 5 5 7 10 10 13 12 13 12 12 11 11 12 12 12 12 12 13 13 13
8 5 8 10 9 11 14 14 14 15 14 5 5 5 6 8 8 7 6 6 8 12 10 15 14 15 13 13 12 13 13 13 14 14 14 13 13 13
14 12 12 11 11 11 13 15 15 16 15 14 14 15 15 14 12 10 9 12 14 15 13 15 15 16 15 15 14 14 14 14 14 15 15 14 15 15
15 14 14 13 14 12 14 16 17 16 15 15 15 15 15 14 13 12 13 13 15 16 15 15 16 17 17 17 15 14 15 15 15 16 16 15 15 15
16 15 15 14 14 14 15 16 17 17 16 16 17 17 16 16 16 17 15 14 15 16 16 15 16 17 19 17 17 17 17 16 16 17 16 15 16 19
17 17 16 15 15 15 16 16 17 16 16 16 17 18 19 18 18 18 18 16 17 18 17 16 16 17 17 19 17 19 21 21 19 18 17 17 16 17
18 17 16 16 15 16 16 16 17 17 17 18 18 19 20 20 19 19 19 19 19 20 20 19 18 17 19 20 22 20 21 21 20 21 21 18 17 15
18 17 17 17 17 17 17 17 17 18 19 20 21 21 20 19 18 19 19 19 20 20 19 19 20 21 19 20 22 22 22 20 20 20 19 18 18 17
19 19 19 19 19 19 19 19 19 19 20 21 21 21 20 20 20 20 21 21 22 21 20 19 19 20 21 21 21 21 20 21 20 18 18 18 17 17
19 20 20 21 20 20 20 21 20 20 21 21 21 21 21 21 21 20 20 21 23 23 22 21 19 19 19 19 20 20 20 20 19 18 18 19 17 17
20 21 22 22 22 22 22 22 21 21 21 21 20 21 21 21 21 20 20 22 23 22 22 21 20 19 19 19 17 19 19 19 18 18 18 20 20 17
21 21 21 21 21 21 21 22 23 22 21 22 22 21 21 21 21 21 21 21 21 21 21 21 21 21 23 23 19 16 19 19 19 21 19 19 20 17
21 22 23 22 22 22 23 23 23 23 23 22 23 23 22 21 22 22 22 23 22 21 21 21 21 21 22 24 24 21 16 21 21 22 21 20 18 15
22 23 23 23 23 24 25 25 26 26 25 25 25 25 25 23 24 23 23 24 23 22 22 22 21 19 18 20 24 23 20 16 17 19 19 23 22 20
24 24 24 24 24 25 26 27 26 26 26 25 26 26 26 23 24 24 24 23 22 22 22 21 20 19 19 20 22 26 22 21 18 16 15 16 18 21
27 25 26 26 25 26 26 28 29 30 28 27 27 27 29 26 25 25 24 23 23 23 23 23 22 21 21 20 22 24 23 24 20 20 19 15 14 13

GFSNE_con_lsi_114.txt.gz
Lid_Strength_Index
2 1 1 1 1 2 3 3 4 6 6 5 5 2 2 2 3 3 3 5 7 7 6 6 5 5 4 4 3 2 1 0 -0 -0 -0 -1 -1 -1
1 1 1 1 1 2 2 3 3 4 6 4 4 4 3 3 3 3 3 5 7 8 8 8 7 6 6 5 5 4 3 2 2 2 1 1 -0 -1
1 1 2 1 2 3 3 3 4 4 6 5 4 4 4 3 3 3 3 3 3 8 9 9 9 9 8 7 7 6 4 4 4 3 3 2 1 1
2 2 2 2 3 3 3 4 4 4 5 6 5 5 4 3 3 4 3 3 3 7 9 9 9 9 9 9 8 8 7 7 7 6 6 6 5 5
1 2 2 2 3 3 3 4 4 4 4 5 5 4 4 3 3 3 3 4 8 10 11 11 11 10 10 10 9 9 8 9 9 9 9 8 8 7
1 1 1 2 2 3 3 3 3 4 4 5 5 5 4 4 4 5 5 5 9 10 11 11 11 11 10 10 10 9 9 9 10 11 11 11 11 10
1 1 1 2 5 4 3 3 3 4 4 5 5 5 5 6 5 4 4 5 8 10 11 11 11 11 11 11 10 10 10 10 11 11 11 12 12 12
3 2 2 6 7 9 9 8 5 4 4 4 4 5 5 4 4 4 4 6 8 9 11 14 12 13 12 12 11 11 11 11 11 11 12 13 13 13
7 5 6 8 8 10 13 13 14 14 14 4 4 4 4 4 5 6 6 6 8 12 12 16 14 15 13 12 12 12 12 12 13 13 13 13 13 14
13 12 10 10 10 11 12 14 15 15 15 14 13 15 15 13 9 8 8 14 14 15 13 16 15 16 14 13 12 13 13 13 14 14 15 15 16 16
15 13 13 12 13 11 13 15 16 17 15 15 15 16 15 15 13 11 13 12 15 15 14 15 16 16 16 15 14 14 14 14 15 15 15 15 16 17
16 15 15 15 14 14 14 15 17 17 16 17 17 17 17 17 17 16 14 14 15 16 15 16 16 16 18 16 17 16 16 16 16 16 16 16 16 16
17 17 16 15 15 15 15 16 17 16 17 18 18 18 18 18 18 18 18 15 14 17 17 15 16 16 17 18 17 19 18 18 18 18 18 17 16 17
19 18 17 16 16 16 16 16 16 17 17 18 20 20 20 20 20 20 19 19 19 19 18 16 16 16 17 18 20 20 20 19 19 19 19 19 19 18
19 18 18 18 18 18 18 18 18 18 19 20 20 20 20 19 19 19 19 19 19 18 18 18 17 17 17 19 21 21 20 20 19 20 19 19 19 19
19 19 19 19 20 20 20 19 19 20 20 21 21 20 19 20 20 19 20 20 21 20 18 18 18 18 20 20 20 21 21 21 20 20 19 18 17 17
19 20 20 21 21 21 21 21 21 20 20 20 20 20 20 20 21 20 20 21 22 21 21 19 18 18 18 19 21 21 21 20 20 19 19 19 18 17
19 20 21 21 22 22 23 22 22 22 21 20 20 21 21 21 21 21 21 21 22 22 22 21 20 19 19 19 18 20 20 20 18 18 18 19 19 17
21 22 22 22 21 22 22 22 23 23 21 22 21 21 21 21 21 21 21 21 21 22 21 20 20 20 22 23 19 17 19 19 19 19 18 18 18 17
21 22 22 22 23 23 23 23 24 23 23 22 22 22 21 21 21 22 21 21 21 21 21 21 21 21 22 22 22 20 16 19 19 19 19 17 17 15
22 22 22 23 23 24 25 25 25 26 25 25 25 24 24 22 23 22 23 23 23 22 23 23 22 19 19 19 21 20 18 16 16 18 18 18 18 18
24 23 24 24 25 25 26 27 26 26 26 25 25 25 24 23 23 23 23 23 23 23 22 21 20 19 18 19 20 21 20 19 18 17 16 16 18 19
26 25 26 27 25 26 26 28 29 30 27 27 26 26 27 24 23 23 22 22 22 23 22 22 21 20 20 20 21 21 21 21 20 20 19 17 16 15

GFSNE_con_lsi_117.txt.gz
Lid_Strength_Index
1 1 1 1 1 1 1 2 4 6 6 3 3 2 2 2 2 0 1 5 7 7 7 6 5 4 4 3 3 2 1 1 0 0 -0 -1 -1 -1
1 1 1 1 1 1 1 1 2 4 6 3 3 3 2 2 2 1 1 4 7 8 8 8 7 6 5 5 5 4 4 3 2 1 0 0 -0 -0
1 1 1 1 1 1 1 1 2 2 4 4 3 3 3 2 3 2 1 1 1 8 9 9 9 8 7 7 7 6 6 5 4 3 2 2 2 2
2 2 2 1 1 1 1 2 2 3 4 6 4 4 4 3 3 3 2 2 1 8 9 9 9 9 9 9 9 8 8 8 7 5 5 5 5 5
3 2 2 1 2 2 2 2 3 3 4 5 5 4 4 4 4 3 2 2 6 10 11 11 10 10 10 10 10 10 10 10 9 9 8 7 6 5
2 2 1 1 2 2 3 2 3 3 4 4 5 5 4 4 3 4 3 5 7 9 11 11 11 11 11 11 11 11 11 10 10 10 10 10 10 9
2 2 2 2 5 4 2 2 3 3 4 5 5 5 5 5 5 3 3 6 8 9 11 11 11 11 11 11 11 11 11 11 11 11 10 11 11 11
3 2 2 5 5 8 9 8 3 3 4 4 4 5 5 4 4 4 4 7 9 10 11 13 12 12 12 11 12 12 11 11 12 11 11 12 12 13
7 5 4 6 6 8 12 13 14 14 13 3 4 4 4 4 4 5 4 5 6 10 13 16 14 14 13 13 13 12 13 13 12 12 12 12 13 14
15 13 12 10 10 10 11 13 14 15 14 13 12 13 13 11 5 4 4 8 14 14 13 16 15 16 14 14 12 13 13 14 14 14 14 14 14 14
16 15 14 14 14 12 13 15 16 16 14 14 15 14 15 15 14 10 12 12 15 15 15 16 16 16 16 16 14 13 14 15 15 14 14 15 15 16
17 17 16 15 15 14 14 15 16 16 16 16 17 17 17 17 16 16 14 12 15 15 16 17 17 17 18 17 16 15 16 16 16 15 15 15 16 14
18 18 17 16 15 15 16 16 17 17 17 18 18 18 19 18 19 18 17 15 15 17 17 15 16 16 17 19 18 18 18 18 17 17 17 16 16 15
19 18 18 17 17 17 17 17 17 17 18 19 19 20 20 20 19 19 18 18 18 18 17 15 15 16 17 18 21 20 18 17 17 17 16 17 18 18
17 17 18 18 18 18 18 18 18 19 19 20 21 21 20 20 19 19 18 18 18 18 17 16 16 15 16 18 20 20 19 18 17 17 16 16 16 16
17 17 18 18 19 19 19 18 18 19 19 20 21 20 19 19 20 19 20 19 20 20 18 17 17 17 19 18 18 19 19 20 18 18 17 16 16 15
15 16 17 18 19 19 19 20 19 19 19 19 19 19 19 19 20 19 19 19 19 19 20 19 18 17 17 18 19 19 19 19 18 18 17 17 17 16
15 16 17 17 18 19 20 20 20 21 19 19 19 19 19 19 20 20 19 19 20 19 19 18 18 19 19 19 18 19 18 18 18 17 17 17 17 15
16 17 17 17 17 17 18 20 21 20 19 19 19 19 19 19 19 19 19 19 20 20 20 19 19 18 20 21 20 18 18 18 17 17 17 17 17 16
17 18 18 18 18 18 18 19 19 19 20 20 19 19 19 19 19 19 19 19 19 19 20 19 19 19 18 19 19 18 17 17 17 18 18 17 15 15
18 18 18 18 19 19 18 19 19 19 19 19 19 19 19 19 20 20 20 20 19 19 20 20 19 18 17 17 18 18 18 18 18 18 17 16 16 14
18 19 19 19 19 19 19 19 18 19 18 18 18 18 18 18 19 19 19 20 20 20 20 19 18 17 17 18 19 19 18 17 17 17 17 17 16 17
20 19 20 20 20 20 20 20 21 20 20 20 19 18 18 18 18 18 19 19 19 20 19 19 18 17 18 18 18 18 20 18 18 17 15 17 17 16

GFSNE_con_lsi_123.txt.gz
Lid_Strength_Index
1 1 1 1 1 1 1 2 3 6 5 2 2 -0 -0 -0 1 1 0 4 7 7 7 6 5 4 4 2 1 1 1 -0 -1 -1 -0 0 0 -0
1 1 1 1 1 1 1 1 2 3 5 2 2 0 -0 -0 1 0 0 3 7 7 8 7 7 5 5 4 3 3 2 2 1 0 1 1 1 0
1 1 1 1 1 1 1 1 2 2 4 2 1 0 0 1 0 1 1 1 2 8 8 8 8 7 7 6 6 6 5 4 3 2 2 2 1 1
2 2 2 1 2 1 1 2 2 2 3 4 2 2 1 0 1 1 1 1 2 7 8 8 8 8 8 8 8 8 7 7 6 5 5 3 3 2
1 2 2 2 2 2 2 2 2 2 2 3 3 1 1 1 2 1 2 2 3 8 9 10 9 9 9 9 9 8 8 8 8 8 7 7 6 5
1 1 1 2 2 2 2 2 2 2 2 3 3 4 3 2 2 3 4 3 7 8 10 10 10 10 10 9 10 9 9 9 9 9 10 10 9 8
6 2 1 2 6 5 2 2 2 2 3 3 3 4 3 4 4 3 4 6 8 9 10 10 10 10 10 10 10 10 10 10 10 10 10 10 10 10
12 11 9 7 10 10 9 9 5 2 3 3 4 5 4 4 3 4 4 8 9 8 10 12 10 11 11 10 11 11 11 11 11 10 10 11 11 11
15 14 13 12 13 11 10 13 14 14 15 6 4 4 4 3 3 4 4 6 6 9 12 15 14 15 13 12 12 12 12 12 12 12 12 13 13 13
16 16 15 14 14 13 11 14 15 15 15 14 14 15 15 14 8 2 3 6 11 10 12 16 16 17 15 14 12 12 13 13 13 13 13 13 13 14
16 15 15 16 15 14 13 15 16 16 16 16 16 16 16 16 15 9 10 9 14 14 15 16 17 17 16 17 15 14 14 14 14 14 14 14 15 15
15 16 16 16 15 15 14 15 16 17 17 17 17 18 18 18 17 17 16 9 14 15 15 16 17 17 19 17 17 16 16 15 15 15 15 15 15 16
15 16 16 16 16 16 16 17 18 17 18 18 18 18 18 18 18 18 17 17 15 15 15 15 16 17 18 20 19 18 18 17 17 16 16 16 15 16
15 15 15 16 16 16 16 16 17 17 18 19 20 20 20 19 18 18 18 17 17 16 15 15 15 17 19 21 22 20 19 18 18 18 18 17 17 17
12 13 13 14 15 15 16 16 16 17 18 19 19 20 19 18 17 18 17 17 18 17 16 16 16 17 17 21 21 21 20 18 17 18 18 18 18 17
12 11 12 13 12 13 14 15 15 16 17 17 18 17 17 17 17 17 17 18 19 19 18 16 16 17 20 20 20 20 19 19 17 17 17 16 16 15
12 12 12 13 13 13 13 13 13 14 15 16 17 17 17 17 18 16 17 17 19 19 20 19 18 17 17 18 19 19 19 19 18 18 18 18 16 16
12 13 14 14 14 14 14 14 14 14 14 14 14 16 17 17 18 18 17 18 19 18 19 18 18 19 19 19 18 19 18 19 18 18 18 18 18 16
13 13 14 14 14 14 14 14 14 14 14 14 14 14 14 15 16 17 17 18 19 18 18 17 17 18 20 22 19 18 18 18 19 18 18 17 17 16
13 14 14 14 14 14 14 15 15 14 14 14 14 14 14 14 15 15 15 16 17 18 18 18 18 17 19 20 20 20 18 18 17 17 17 16 16 17
15 15 15 15 15 15 14 14 14 14 14 14 14 14 14 14 15 15 16 16 15 15 17 17 17 15 16 16 20 20 19 18 18 18 17 17 16 16
16 16 16 16 16 16 15 15 15 15 14 14 14 13 13 13 14 15 15 15 16 16 16 15 14 14 14 15 17 18 18 18 18 18 18 19 19 18
17 16 16 16 17 16 16 16 16 16 16 15 15 14 14 14 14 14 14 15 15 15 15 15 14 14 15 15 15 16 18 17 17 17 17 18 18 18

GFSNE_con_lsi_126.txt.gz
Lid_Strength_Index
1 1 1 1 1 2 2 3 4 7 6 3 3 1 1 1 1 1 1 4 6 7 7 5 4 3 3 3 2 2 1 -0 -1 -0 0 -1 -1 -1
1 1 1 1 1 1 2 2 3 4 6 3 3 2 1 1 2 1 1 4 7 7 8 7 6 5 4 4 4 4 3 2 1 -0 0 1 -0 -1
1 2 2 1 2 1 1 2 2 3 4 3 2 2 1 2 1 1 0 0 1 7 7 8 8 7 6 6 6 5 5 4 3 1 1 1 0 0
2 2 2 2 2 1 2 2 2 2 3 4 3 3 3 2 1 1 1 -0 -0 4 7 8 8 9 8 8 8 7 7 6 6 5 4 4 3 2
2 2 2 2 2 2 2 2 2 2 2 3 3 2 3 2 2 1 1 1 1 3 8 8 8 9 9 9 8 8 8 8 8 7 7 7 6 5
8 8 7 6 3 2 2 2 2 2 2 3 3 3 3 2 3 3 3 2 5 6 8 7 8 8 9 9 9 9 9 9 8 9 9 9 9 8
12 12 11 11 12 13 10 5 2 3 3 3 4 4 4 4 4 3 3 4 7 8 9 10 9 8 9 10 9 9 10 9 9 9 9 10 10 9
14 14 12 13 13 14 13 13 14 7 3 4 4 4 4 3 4 4 4 8 9 8 9 11 10 11 10 10 11 11 10 10 10 10 10 10 10 10
15 15 15 14 15 14 12 13 15 15 16 12 6 4 4 4 3 4 4 6 6 9 11 13 13 15 13 12 12 11 11 11 11 10 10 10 11 12
16 16 16 15 15 14 12 14 16 16 16 15 16 16 17 16 14 7 4 6 11 11 11 14 15 16 14 13 12 12 12 12 12 13 13 13 14 14
15 15 15 16 15 14 15 14 15 16 15 15 15 15 16 16 16 13 11 10 15 14 14 14 16 16 16 16 14 13 13 13 13 13 13 14 14 14
15 15 15 15 15 15 16 17 17 17 17 17 16 16 16 16 16 17 16 14 15 16 15 16 16 16 19 17 17 16 16 15 14 14 14 15 15 16
15 15 15 15 15 15 15 16 17 17 18 18 18 18 17 17 17 17 17 17 16 16 16 15 16 16 17 19 19 18 16 16 16 16 15 15 16 16
14 13 13 13 13 14 15 15 15 16 17 18 18 18 18 18 18 17 17 17 17 16 16 15 16 17 19 21 21 19 19 18 18 18 18 16 16 16
13 12 12 12 12 14 13 14 16 16 17 18 18 18 17 17 16 17 17 17 18 18 16 16 17 17 18 21 21 21 20 19 18 19 18 18 18 18
13 12 13 13 13 13 14 14 14 14 15 16 17 16 16 17 18 17 18 18 19 19 18 17 17 18 20 20 20 20 20 20 18 18 19 18 18 17
12 13 14 14 15 14 14 15 15 15 15 14 15 16 16 17 18 17 17 18 20 20 20 19 18 18 18 19 20 20 20 19 18 18 18 19 18 17
13 14 15 15 15 16 16 15 16 16 16 15 15 15 15 16 16 16 16 18 19 19 19 18 18 19 19 19 17 19 19 19 18 18 18 19 19 17
16 16 16 16 16 16 16 16 17 16 15 15 16 16 15 15 15 16 16 16 17 17 18 17 17 18 21 23 20 17 19 19 19 19 18 18 18 18
17 17 18 17 17 16 17 16 15 16 16 15 15 16 16 17 17 17 17 17 17 17 17 17 17 16 19 20 21 21 16 18 18 19 18 17 18 17
18 17 18 18 18 18 17 17 16 17 16 15 15 15 16 17 19 18 19 19 18 17 18 18 17 15 16 16 19 20 19 17 18 18 18 18 18 18
18 18 18 19 19 19 18 18 18 18 18 17 17 18 16 16 18 19 19 20 18 19 18 17 16 16 15 17 19 21 19 18 17 16 17 18 20 20
19 18 19 19 20 20 20 20 19 19 20 20 19 17 17 19 16 17 18 18 18 18 17 17 16 16 16 16 17 19 21 21 18 18 18 16 17 17

GFSNE_con_lsi_129.txt.gz
Lid_Strength_Index
1 1 1 1 1 2 3 4 5 6 6 4 3 2 1 1 1 1 1 4 7 7 6 5 4 3 3 2 2 2 2 2 2 1 0 -1 -1 -1
1 1 1 2 2 1 2 2 2 4 6 3 3 3 1 1 1 1 1 4 7 8 8 7 6 4 4 4 3 3 2 2 2 2 2 1 -0 -1
1 2 2 1 2 1 3 3 2 3 4 3 2 2 2 2 2 2 2 2 2 8 8 8 8 7 6 5 5 4 4 4 3 3 3 2 1 0
4 2 2 2 2 3 3 3 2 2 3 4 3 3 3 2 1 2 2 1 1 4 7 8 8 8 7 7 7 7 6 6 5 5 5 4 3 2
10 9 10 10 10 8 4 2 2 2 2 3 3 2 2 3 3 2 2 2 1 3 7 8 8 8 8 8 8 7 7 7 7 7 7 7 6 5
12 11 12 13 13 12 10 9 5 2 2 3 3 3 3 4 2 3 3 2 2 3 6 6 7 8 8 8 8 8 8 8 8 8 8 9 8 7
14 13 13 14 14 14 12 12 11 8 3 3 4 3 3 4 3 3 3 4 4 5 6 8 7 6 6 8 7 8 8 8 8 8 8 9 9 9
16 15 14 15 15 14 13 15 15 14 11 10 5 4 3 4 4 4 4 5 7 7 8 9 10 10 10 8 8 9 9 9 9 9 9 9 9 10
16 16 15 15 15 14 13 13 14 15 16 14 13 15 14 15 14 6 4 4 4 7 8 11 13 14 14 12 11 11 10 10 9 10 10 10 10 10
16 16 16 16 15 15 14 14 15 15 15 15 15 16 16 16 15 14 12 11 9 10 10 12 15 16 16 14 12 11 11 11 11 11 11 11 11 11
15 15 15 15 15 14 16 16 16 16 15 14 15 16 15 16 16 13 13 12 13 13 14 13 16 17 17 17 15 12 12 12 12 12 13 13 13 14
15 15 14 15 14 15 16 16 17 17 17 16 16 16 16 16 16 16 17 15 15 14 14 15 17 17 18 18 17 16 14 13 13 13 13 14 14 15
14 14 14 13 13 14 14 15 16 17 18 18 17 16 16 15 16 16 17 17 17 16 16 15 16 16 17 20 19 18 16 15 15 15 15 14 15 15
14 13 13 12 13 13 14 14 14 17 18 18 18 18 17 17 16 16 16 17 17 18 16 16 16 16 19 21 21 19 19 17 16 17 17 16 15 16
13 12 12 12 13 14 14 14 15 15 16 16 17 17 17 17 16 16 17 17 17 17 17 17 16 17 17 20 21 21 20 19 18 18 18 18 18 17
13 14 15 14 17 17 17 16 17 16 16 16 17 19 18 17 17 16 19 19 19 18 17 17 18 18 20 19 20 20 20 21 19 18 18 18 18 17
14 17 17 17 18 18 17 17 17 17 17 18 17 18 20 19 18 18 17 19 18 19 19 18 18 18 18 19 20 20 20 20 19 19 18 19 17 17
18 20 21 20 18 19 19 19 19 18 16 16 18 17 17 17 18 17 17 18 18 18 17 17 17 18 19 18 17 19 19 19 18 18 18 19 19 18
19 21 25 23 20 18 18 18 17 18 16 16 17 17 16 16 17 17 17 17 17 17 17 17 16 18 21 22 19 16 18 18 18 18 18 18 19 18
20 19 20 21 20 19 19 18 18 18 17 16 17 17 17 17 18 18 18 20 18 17 17 17 16 16 18 19 21 20 16 18 18 18 18 18 17 16
20 20 19 20 21 20 21 20 19 20 20 20 18 18 17 18 21 20 19 22 20 17 18 18 16 16 16 16 20 20 18 15 15 16 16 18 18 18
24 21 20 20 22 21 22 22 20 21 22 21 21 21 18 18 19 20 21 22 19 20 18 17 15 14 15 17 19 20 19 18 16 15 16 17 18 18
24 22 21 20 21 20 20 23 23 25 24 23 22 21 20 19 18 18 19 19 19 19 17 18 17 16 16 17 18 20 21 20 18 18 18 16 16 16